[{"header": {"dx": 0.06612293990616946, "dy": 0.0552356325346848, "nx": 98, "ny": 59, "la1": 35.046912555036876, "la2": 31.78801023549047, "lo1": -121.43107172385933, "lo2": -114.95102361305473, "refTime": "2026042013", "parameterCategory": 1, "parameterNumber": 2}, "data": [-0.59, -0.54, -0.54, -0.55, -1.23, -2.22, -3.48, -3.48, -3.16, -2.84, -3.43, -3.43, -2.5, -2.15, -2.15, -2.15, -1.88, -1.88, -1.6, -1.49, -0.66, -0.0, 0.55, -0.0, -0.0, -0.0, -0.0, -0.53, -1.27, -1.84, -1.26, -0.45, 0.0, 0.45, 1.2, 1.7, 2.17, 1.7, 1.26, 0.65, -0.0, -0.0, 0.6, 1.34, 3.13, 4.3, 5.2, 5.2, 4.92, 4.43, 4.4, 4.12, 4.46, 4.46, 4.09, 3.72, 3.72, 4.0, 3.45, 2.8, 1.7, 0.45, 0.0, 0.6, 1.9, 3.07, 4.4, 6.36, 7.89, 9.36, 8.46, 5.36, 3.58, 3.97, 4.66, 6.0, 7.06, 8.84, 8.49, 4.02, 2.15, -0.0, -1.9, -1.86, -0.6, -0.0, 0.57, 0.57, 1.7, 3.07, 3.72, 3.79, 2.86, 2.84, 2.5, 2.4, 1.86, 1.2, -0.59, -0.54, -0.54, -0.0, -0.55, -1.58, -2.86, -3.16, -2.86, -2.86, -3.16, -1.88, -1.88, -1.61, -1.58, -1.9, -2.21, -2.21, -1.6, -1.8, -1.49, -0.73, -0.0, 0.96, 0.63, -0.0, -0.0, -0.6, -1.13, -1.76, -1.61, -1.2, -0.45, 0.0, 0.45, 1.34, 1.79, 1.79, 1.6, 0.57, -0.0, 0.8, 1.79, 3.07, 3.6, 4.11, 4.43, 4.47, 4.3, 4.4, 4.46, 4.66, 5.05, 4.93, 4.0, 3.45, 3.49, 4.46, 5.05, 4.93, 3.32, 1.79, 0.45, 0.63, 1.7, 2.4, 3.51, 4.87, 6.66, 8.49, 8.94, 6.26, 4.02, 4.02, 3.97, 4.87, 7.89, 8.84, 8.49, 4.02, 2.15, -0.0, -1.9, -1.86, -0.6, -0.0, 0.57, 0.57, 1.7, 3.07, 3.72, 3.79, 2.86, 2.84, 2.5, 2.4, 1.86, 1.2, -0.0, -0.0, -0.0, -0.0, -0.0, -0.57, -1.8, -2.58, -3.16, -3.43, -3.43, -3.15, -1.61, -1.16, -1.2, -1.88, -2.21, -2.21, -1.84, -1.33, -1.8, -1.49, -0.66, -0.0, 0.96, 1.23, 0.65, -0.0, -0.61, -1.35, -1.23, -1.16, -0.0, -0.0, 0.89, 0.89, 1.34, 1.79, 1.34, 0.95, 0.6, 1.79, 3.13, 3.98, 4.3, 4.43, 4.02, 3.98, 4.24, 4.52, 4.52, 5.16, 5.16, 4.3, 3.39, 2.5, 3.07, 4.0, 5.34, 4.93, 5.16, 3.51, 1.79, 0.89, 0.89, 2.24, 3.07, 4.87, 5.77, 7.11, 8.36, 8.46, 7.15, 5.59, 3.39, 4.66, 7.56, 10.7, 9.83, 4.47, 2.24, -0.0, -2.4, -3.07, -2.17, -0.0, 0.57, 1.86, 2.68, 4.3, 6.07, 5.37, 4.36, 2.73, 2.51, 2.5, 1.86, 1.2, -0.0, -0.0, -0.0, -0.0, -0.0, -0.0, -0.57, -1.6, -2.51, -3.43, -3.78, -4.0, -2.21, -1.61, -1.16, -1.2, -1.88, -1.88, -1.84, -1.8, -1.76, -1.49, -1.33, -1.27, -0.0, -0.0, 1.19, 1.27, 0.59, -0.63, -1.76, -1.11, -0.59, 0.7, 2.15, 2.8, 2.6, 2.24, 2.24, 1.34, 1.7, 2.49, 3.39, 3.98, 4.02, 4.02, 4.02, 4.02, 3.97, 4.43, 4.43, 4.92, 4.47, 3.53, 2.91, 2.15, 2.91, 3.82, 4.24, 4.73, 4.73, 4.41, 3.07, 1.7, 1.26, 1.86, 3.32, 4.93, 6.13, 7.14, 8.63, 8.91, 7.89, 5.31, 3.15, 4.01, 6.7, 10.68, 10.18, 3.39, 0.0, -1.34, -3.58, -4.02, -3.13, -0.89, 1.34, 2.68, 3.82, 6.64, 7.28, 5.06, 4.29, 3.38, 2.51, 2.15, 2.17, 2.6, -0.0, -0.0, -0.0, -0.0, -0.0, -0.0, -0.0, -0.0, -1.16, -2.23, -3.14, -4.0, -2.5, -2.21, -1.61, -1.0, -1.2, -1.88, -2.23, -2.51, -1.66, -0.73, -0.73, -0.73, -1.35, -0.73, -0.0, 1.7, 1.7, 0.61, -0.66, -1.84, -1.84, -0.0, 2.15, 3.45, 3.74, 3.97, 2.68, 0.89, 1.0, 1.8, 3.15, 3.78, 3.72, 3.32, 2.63, 3.13, 3.58, 4.02, 4.47, 4.47, 3.58, 3.13, 2.91, 3.32, 3.51, 3.53, 3.82, 4.73, 4.43, 4.02, 3.53, 2.4, 2.4, 2.6, 2.63, 3.07, 4.0, 6.64, 7.6, 7.89, 4.43, 2.4, 1.33, 1.88, 4.56, 8.32, 3.53, 0.0, -2.79, -2.15, -3.53, -3.98, -3.32, -1.2, 1.2, 3.14, 6.08, 7.06, 6.08, 4.46, 4.11, 2.51, 1.24, 1.7, 3.07, 3.53, -0.0, -0.0, -0.0, -0.0, -0.0, -0.0, -0.0, -0.0, -0.0, -0.61, -1.4, -2.23, -2.5, -2.15, -1.9, -1.58, -1.58, -1.9, -2.5, -2.79, -2.84, -1.8, -1.41, -0.73, -0.73, -1.27, -0.0, 0.66, 1.66, 1.66, 0.57, -1.16, -1.61, -0.6, 1.49, 3.07, 3.53, 4.43, 2.68, -1.2, -1.16, -0.0, 2.66, 4.36, 4.07, 3.43, 2.84, 2.6, 2.63, 3.07, 3.58, 4.02, 3.13, 1.79, 2.24, 3.13, 3.13, 3.13, 3.58, 3.98, 4.02, 3.58, 2.91, 2.68, 3.07, 3.32, 2.24, 0.89, 1.86, 3.72, 6.07, 5.69, 3.16, 0.95, 0.6, 1.16, 2.98, 3.79, 2.68, -2.24, -3.14, -1.84, -2.51, -2.84, -2.0, -0.72, 0.69, 3.79, 5.3, 5.0, 3.79, 4.75, 2.84, 0.0, -0.63, 1.49, 3.82, 4.3, -0.0, -0.0, -0.0, -0.0, -0.0, -0.0, -0.0, -0.0, -0.0, -0.0, -0.0, -0.0, -0.54, -0.54, -1.58, -1.9, -1.86, -1.6, -1.2, -1.26, -1.9, -2.5, -2.53, -2.23, -1.4, -1.49, -0.57, -0.0, 1.26, 1.33, 0.66, -0.0, -0.61, -0.0, 0.63, 1.79, 2.68, 4.41, 3.51, -0.57, -2.23, -0.71, 0.65, 2.41, 4.43, 5.0, 5.49, 3.15, 2.4, 1.34, 2.68, 2.68, 1.79, 0.89, 1.34, 2.24, 2.24, 2.17, 2.63, 3.53, 3.58, 2.6, 2.5, 2.79, 3.45, 4.09, 2.4, 0.0, 0.89, 3.53, 4.87, 4.3, 3.2, 1.86, 0.89, 1.86, 2.53, 1.86, 2.68, 4.43, -0.59, 0.0, -0.74, -1.52, -0.75, 0.0, 0.75, 2.18, 2.88, 2.88, 3.32, 3.12, 0.0, -2.68, -0.6, 1.9, 3.6, 4.3, -0.0, -0.0, -0.0, -0.0, -0.0, -0.0, -0.0, -0.0, -0.0, -0.0, -0.0, -0.0, -0.0, -0.0, -0.0, -0.54, -0.99, -0.95, -0.0, -0.0, -0.53, -1.16, -1.88, -2.4, -2.68, -2.24, -1.34, -0.63, 0.45, -0.0, -0.0, -0.0, -0.0, 0.8, 1.79, 1.7, 1.86, 3.58, 3.74, 0.8, -1.34, -1.79, -0.45, 0.63, 1.58, 2.15, 3.79, 5.28, 4.02, 1.9, 1.34, 0.89, 0.45, 0.0, 0.0, 0.0, 0.45, 0.8, 1.86, 2.4, 2.68, 2.24, 2.17, 2.91, 3.74, 4.4, 5.34, 2.4, 1.16, 3.14, 4.3, 4.3, 3.53, 2.17, 0.63, 0.42, 0.6, 0.63, 2.4, 7.47, 8.49, 2.12, 0.67, 0.0, -0.69, 0.0, 0.0, 0.67, 1.27, 2.23, 1.94, -0.57, -3.82, -2.91, 0.0, 2.21, 3.35, 3.6, -0.0, -0.0, -0.0, -0.0, -0.0, -0.0, -0.0, -0.0, -0.0, -0.0, -0.0, -0.51, -0.0, -0.0, 0.71, -0.0, -0.0, -0.0, -0.0, -0.65, -0.7, -1.49, -1.84, -3.07, -3.09, -2.24, -1.6, -1.34, -1.34, -0.8, -0.0, -0.0, 0.0, 0.89, 1.79, 2.12, 1.58, 2.12, 2.12, -0.0, -1.34, -1.6, -1.6, -0.95, -0.45, -0.0, 0.65, 2.76, 5.94, 5.3, 1.74, 0.45, -1.79, -1.79, -1.79, -1.34, -0.89, 0.0, 0.63, 1.7, 2.24, 2.24, 2.24, 2.68, 3.13, 3.58, 7.01, 6.71, 2.79, 2.2, 3.16, 4.09, 3.72, 2.21, 0.0, -1.9, -1.9, -0.57, 1.58, 4.3, 6.07, 4.67, 1.98, 2.06, 0.69, 0.0, -0.67, -0.59, 0.0, 0.63, -0.65, -3.72, -4.11, -2.5, 0.0, 2.15, 3.07, 3.6, -0.0, -0.0, -0.0, -0.0, -0.0, -0.0, -0.0, -0.0, -0.0, -0.0, -0.0, -0.61, -0.65, -0.0, -0.0, -0.0, 0.0, 0.0, -0.0, -0.8, -1.58, -1.58, -1.9, -2.4, -2.6, -2.24, -1.34, -1.2, -1.6, -1.34, -0.63, -0.63, 0.45, 0.0, 0.45, 1.34, 2.12, 1.2, 0.0, 0.45, -1.24, -1.86, -1.86, -2.4, -1.7, -0.89, -0.0, 1.58, 2.84, 4.43, 2.66, -0.0, -1.79, -1.79, -1.7, -1.79, -1.79, -0.89, 0.0, 1.26, 1.9, 2.21, 2.98, 2.24, 2.4, 3.07, 6.55, 8.38, 4.09, 1.27, 1.8, 3.78, 4.12, 2.23, 0.0, -1.9, -2.21, -1.58, 0.0, 0.63, 1.7, 1.9, 2.86, 3.79, 4.73, 3.72, 2.21, 1.2, 1.2, -0.0, -1.7, -3.14, -2.84, -1.61, 0.0, 1.2, 2.12, 2.4, -0.0, -0.0, -0.0, -0.0, -0.0, -0.0, -0.0, -0.0, -0.0, -0.0, -0.0, -0.0, -0.54, -0.8, 0.45, 0.45, 0.63, 0.63, 0.89, -0.0, 0.45, -0.89, -1.34, -1.34, -1.79, -1.79, -1.34, -1.34, -1.34, -1.6, -1.2, -0.63, -0.45, -0.45, -0.45, 0.45, 0.89, 0.0, -1.26, -1.0, -1.24, -1.86, -1.49, -1.6, -1.34, -0.89, -0.0, 0.65, 1.13, 0.63, 0.69, 0.64, -0.0, -0.0, -0.0, -0.0, -0.53, -0.89, -0.0, 0.59, 1.41, 2.12, 2.73, 2.8, 2.68, 3.32, 6.28, 6.79, 3.07, 1.16, 1.33, 3.15, 3.78, 2.53, 0.57, 0.0, -0.54, -0.95, -1.34, -1.2, -1.26, 0.0, 1.24, 3.49, 6.11, 8.05, 8.49, 7.12, 5.32, 3.13, 1.7, 0.0, -0.54, -0.57, 0.0, 0.0, 0.45, 0.89, -0.0, -0.0, -0.0, -0.0, -0.0, -0.0, -0.0, -0.0, -0.0, -0.0, -0.0, -0.0, -0.0, -0.8, -0.89, 0.0, 0.95, 1.34, 1.79, 2.12, 1.7, 1.34, 0.89, 0.45, 0.0, 0.0, 0.0, 0.45, 0.45, -1.34, -1.6, -1.2, -1.34, -1.34, -1.34, -1.34, -1.7, -1.86, -2.53, -2.53, -1.86, -1.79, -0.89, -0.89, -0.63, -0.54, -0.7, -0.73, -0.81, -1.84, -1.4, -0.71, -0.0, -0.0, 0.74, 1.47, 2.12, 0.53, -0.63, -0.0, 0.73, 2.23, 3.55, 2.51, 2.23, 1.88, 1.84, 0.65, -0.0, 0.0, 0.99, 2.53, 3.14, 2.5, 2.4, 2.5, 2.15, 1.6, 0.0, -1.86, -3.07, -2.21, -0.54, 2.5, 3.97, 7.15, 9.83, 9.36, 7.6, 4.92, 3.82, 3.07, 2.0, 0.63, 0.0, 0.0, -0.45, -0.45, -0.0, -0.0, -0.0, -0.0, -0.0, -0.0, -0.0, -0.0, -0.0, -0.0, -0.0, -0.0, -0.0, -0.0, -0.0, 0.45, 0.45, 0.89, 1.79, 2.24, 2.68, 3.13, 3.13, 3.13, 2.68, 2.68, 2.24, 2.24, 1.2, -0.95, -1.7, -1.7, -2.24, -2.24, -1.79, -2.68, -3.07, -3.39, -3.6, -3.6, -3.07, -2.24, -1.6, -0.6, -0.6, -1.49, -2.41, -2.3, -2.3, -2.3, -2.86, -2.44, -1.94, -1.19, -0.0, 0.73, 2.99, 4.94, 1.88, -1.13, -0.69, 2.31, 2.12, 0.61, -0.74, -1.44, -2.15, -0.73, -0.0, 0.67, 0.59, -0.0, 0.89, 1.34, 2.17, 3.2, 3.6, 3.32, 2.4, -0.6, -2.68, -2.79, -1.13, 0.0, 2.4, 5.16, 9.58, 8.97, 7.33, 6.58, 5.2, 2.91, 2.4, 2.4, 1.9, 0.6, -0.89, -1.79, -0.0, -0.0, -0.0, -0.0, -0.0, -0.0, -0.0, -0.0, 0.59, 0.59, -0.0, -0.0, -0.0, -0.0, -0.0, -0.0, 0.45, 0.89, 1.34, 1.79, 2.68, 3.13, 3.13, 3.58, 3.58, 3.58, 3.13, 3.13, 2.24, 0.45, -1.79, -2.12, -2.12, -2.0, -2.17, -2.68, -3.09, -3.53, -3.53, -3.53, -3.13, -3.13, -2.24, -0.89, 0.45, -1.26, -2.15, -3.2, -3.2, -2.8, -3.32, -3.07, -2.24, -1.34, -0.45, 0.0, -0.0, 3.07, 6.18, -0.0, -2.0, -0.0, -0.0, -1.04, -2.28, -3.11, -3.46, -1.36, 0.99, 2.06, 1.44, 0.64, 0.63, 0.59, 1.61, 1.79, 2.5, 3.07, 3.07, 1.86, -0.6, -1.61, -0.57, -0.67, 0.57, 3.16, 7.6, 7.47, 5.02, 5.67, 6.55, 3.39, 2.15, 2.5, 2.79, 1.24, -0.89, -1.79, -0.0, -0.0, -0.0, -0.0, -0.0, -0.0, -0.0, 0.59, 0.59, 0.51, 0.61, 0.53, 0.65, 0.54, 0.57, 0.8, 0.6, 0.95, 1.34, 1.79, 2.24, 2.68, 3.13, 3.13, 3.58, 3.58, 3.58, 3.13, 2.68, 1.7, 0.0, -2.12, -2.0, -1.58, -2.4, -2.24, -2.24, -2.24, -2.24, -3.13, -3.13, -2.24, -1.79, -0.89, -0.89, -0.0, -0.95, -2.0, -2.12, -2.6, -2.68, -2.12, -0.95, 0.0, 0.0, 0.0, 0.0, 1.79, 4.93, 2.76, -1.2, -1.9, -1.4, -1.4, -1.49, -2.99, -2.53, -0.0, 0.61, 0.73, -0.0, 0.75, 2.23, 2.2, 2.73, 1.88, 0.8, 1.2, 1.88, 2.5, 1.49, 0.0, 0.0, -0.64, -0.59, 1.23, 3.78, 4.09, 4.0, 4.73, 7.01, 4.73, 1.88, 1.61, 1.9, 0.0, -0.89, -0.89, 0.55, -0.0, -0.0, -0.0, -0.0, -0.0, 0.51, 0.59, 0.59, 0.51, 0.61, 0.53, 0.65, 0.54, 0.71, 0.57, 1.26, 1.26, 1.6, 1.7, 2.24, 2.24, 2.68, 3.13, 3.13, 3.58, 3.58, 3.13, 3.07, 2.17, 0.95, -0.95, -2.4, -2.0, -0.95, -1.34, -1.34, -1.49, -2.0, -2.54, -2.68, -1.79, -0.89, -0.89, -1.34, -0.0, -1.26, -2.0, -1.2, -1.6, -1.79, -1.2, 0.45, 0.0, 0.0, 0.0, 0.45, 0.0, 2.6, 2.21, -0.0, -0.45, -0.45, -0.45, -1.2, -2.12, -1.7, -0.0, -0.0, -0.0, -0.0, 1.32, 2.6, 3.43, 3.15, 3.16, 2.5, 1.34, 1.26, 1.86, 2.17, 1.7, 0.0, 0.0, 0.0, 0.0, 1.16, 2.53, 2.53, 3.14, 5.44, 1.88, 0.65, 2.5, 2.5, 0.99, 0.0, 0.0, 0.63, 0.57, -0.0, -0.0, -0.0, -0.0, 0.59, 0.59, 0.59, 0.51, 0.61, 0.53, 0.65, 0.54, 0.71, 0.71, 1.24, 1.58, 1.86, 2.12, 2.17, 2.24, 2.68, 2.63, 3.13, 3.58, 3.58, 3.09, 3.07, 2.4, 1.86, 0.0, -1.26, -0.95, -1.2, -1.34, -1.34, -1.6, -2.12, -1.79, -1.79, -1.79, -1.34, -1.2, -1.34, -1.34, -0.95, -1.34, -1.34, -0.0, -0.63, -0.45, 0.45, 0.0, 0.45, 0.0, 0.0, 0.0, 0.0, 0.45, 0.45, 0.45, 0.45, 0.45, 0.45, 0.0, 0.0, -0.65, -1.84, -0.89, 0.81, 1.76, 2.84, 3.35, 3.72, 3.72, 3.43, 3.14, 2.68, 2.4, 2.4, 1.7, 0.63, 0.71, 1.2, 1.7, 0.0, 0.61, 1.13, 3.48, 4.93, 2.21, 0.61, 2.51, 2.84, 1.2, 0.0, 0.0, 0.57, 0.57, -0.0, -0.0, -0.0, 0.51, 0.59, 0.59, 0.51, 0.61, 0.61, 0.53, 0.65, 0.65, 0.54, 0.71, 1.24, 1.58, 1.86, 2.0, 2.17, 2.24, 2.17, 2.6, 3.09, 3.58, 3.13, 3.07, 3.07, 2.4, 2.4, 1.58, 0.0, -0.8, -1.26, -0.63, -0.89, -1.79, -1.79, -1.79, -1.6, -2.12, -2.24, -1.79, -0.89, -0.89, -0.89, -0.89, -0.89, -0.0, -0.0, -0.0, -0.0, 0.45, 0.45, 0.0, 0.45, -0.0, 1.34, 0.89, 1.34, 1.79, 1.34, -0.0, -0.0, -0.0, -0.0, -1.58, -2.53, -0.65, 1.49, 3.07, 3.39, 3.98, 3.97, 2.91, 3.14, 3.78, 4.12, 3.16, 2.51, 1.88, 1.2, 2.0, 2.63, 2.24, 1.2, 0.0, 0.66, 2.0, 3.16, 2.5, 1.16, 1.76, 2.51, 1.2, 0.0, 0.0, 0.57, 0.57, 0.57, -0.0, -0.0, 0.59, 0.59, 0.59, 0.51, 0.61, 0.61, 0.53, 0.65, 0.54, 0.54, 0.6, 1.24, 1.58, 1.86, 2.23, 2.4, 2.17, 1.79, 1.34, 1.79, 2.68, 3.58, 2.24, 2.12, 2.8, 2.4, 1.9, 1.24, 0.0, 0.0, 0.0, 0.0, -0.95, -1.7, -1.86, -1.9, -2.4, -2.12, -1.6, -1.79, -1.34, -1.34, -1.34, -1.34, 0.89, -0.0, -0.0, -0.0, -1.26, -0.95, 0.89, 0.45, 0.89, 1.34, 1.34, 1.34, 1.79, 1.34, -0.0, -0.95, -0.89, 0.0, 0.45, -0.89, 0.0, 2.12, 4.02, 5.36, 6.71, 4.92, 3.07, 2.17, 3.13, 3.82, 3.14, 1.9, 1.86, 1.34, 1.24, 1.9, 2.5, 1.88, 1.16, 0.66, 0.57, 1.13, 2.53, 1.8, 1.35, 1.27, 1.16, 0.0, 0.0, 0.57, 0.57, 0.57, -0.0, -0.0, 0.59, 0.59, 0.51, 0.61, 0.61, 0.53, 0.53, 0.65, 0.54, 0.71, 1.24, 0.99, 1.26, 0.6, 1.26, 2.12, 2.68, 1.79, 1.34, 1.7, 2.24, 2.24, 3.07, 2.6, 2.4, 2.23, 1.9, 1.9, 1.24, 1.24, 1.24, 1.86, 1.2, 0.0, -1.86, -2.15, -2.4, -2.6, -2.63, -3.13, -1.34, -1.34, -0.95, -0.95, -0.0, -0.0, -0.0, -1.26, -1.26, -0.63, -0.0, -0.0, 0.45, 0.45, 1.34, 0.89, 0.89, 0.89, -0.0, -0.63, -0.89, 0.45, 0.45, 2.24, 3.13, 4.47, 8.94, 12.49, 13.39, 10.18, 4.09, 2.48, 2.48, 2.68, 2.4, 2.4, 2.17, 1.79, 0.95, 0.65, 1.16, 1.2, 1.26, 0.59, 0.0, 0.0, 1.6, 2.0, 1.47, 0.61, 0.63, 0.59, 0.59, 0.57, 0.59, 0.59, 0.59, 0.59, 0.59, 0.51, 0.51, 0.61, 0.61, 0.53, 0.65, 0.65, 0.54, 1.24, 1.24, 0.99, 1.26, 1.26, 1.2, 1.79, 2.68, 2.24, 2.17, 3.07, 3.07, 3.13, 2.68, 2.6, 2.12, 1.86, 2.23, 1.9, 1.9, 1.9, 1.9, 1.9, 2.4, 1.7, 0.95, 0.0, 0.0, -0.89, -0.89, -1.34, -0.89, -0.95, -0.95, -0.95, -0.0, -0.0, -0.0, -0.95, -1.34, -1.34, -0.0, -0.0, -0.0, 0.45, 0.45, -1.34, -1.79, -1.58, -1.79, -0.89, -0.89, -0.45, 0.0, 1.7, 3.45, 7.2, 10.02, 11.15, 11.15, 10.25, 7.06, 3.44, 2.2, 1.13, 1.7, 2.17, 2.17, 1.86, 0.8, 0.63, 0.6, 0.63, 0.45, 1.34, 1.2, 0.59, 1.13, 2.0, 0.61, 0.0, 0.0, 0.0, 0.0, 0.59, 0.59, 0.59, 0.59, 0.59, 0.59, 0.51, 0.61, 0.61, 0.53, 0.53, 0.65, 0.65, 1.0, 1.24, 1.24, 0.99, 1.26, 1.7, 2.12, 2.17, 2.24, 2.24, 2.24, 2.68, 3.13, 3.13, 3.13, 2.68, 2.6, 2.17, 1.86, 2.23, 1.9, 1.9, 1.9, 1.9, 2.15, 2.4, 2.4, 2.0, 2.12, 1.7, 1.34, 0.89, -0.0, -0.0, -0.0, -0.63, 0.89, 0.89, 0.89, -0.89, -0.89, 0.89, 0.45, -0.6, -1.86, -2.0, -2.4, -2.12, -2.17, -1.7, -0.89, -0.89, -0.89, -0.89, -0.89, -0.0, 1.49, 2.68, 1.41, -0.0, 0.6, 2.66, 3.44, 3.46, 2.76, 1.3, 0.53, 0.45, 0.95, 1.24, 0.54, 0.6, 0.63, 0.63, 0.63, 0.63, 2.4, 2.23, 1.88, 1.16, 0.57, -0.61, -1.35, -1.8, -1.8, 0.59, 0.59, 0.59, 0.59, 0.59, 0.51, 0.51, 0.61, 0.61, 0.53, 0.53, 0.65, 1.2, 1.0, 1.24, 1.24, 1.24, 1.26, 1.49, 2.12, 2.17, 2.17, 2.24, 2.24, 2.68, 2.68, 3.13, 3.13, 3.13, 2.63, 2.6, 2.6, 2.4, 2.4, 2.15, 2.15, 2.15, 2.5, 2.5, 2.91, 2.91, 2.91, 3.07, 2.68, 2.68, 2.12, 0.63, -0.0, 0.45, -0.45, 0.45, 0.45, -0.89, -0.89, -0.89, 0.89, -1.49, -2.4, -1.86, -1.26, -2.12, -2.24, -1.34, -0.89, -1.2, -1.2, -0.63, -0.89, 0.45, 0.0, -0.76, -1.55, 1.16, 0.45, 0.0, 0.64, 2.12, 2.69, 1.93, 0.57, 0.0, 0.45, -0.0, -0.0, 0.57, 0.57, 0.6, -0.0, 0.45, -0.0, 1.2, 0.45, 0.0, -0.54, -1.8, -2.48, -2.51, -2.51, 0.59, 0.59, 0.59, 0.59, 0.51, 0.51, 0.61, 0.61, 0.61, 0.53, 0.65, 0.65, 1.2, 1.0, 1.24, 1.24, 1.24, 1.26, 1.49, 2.12, 2.12, 2.17, 2.24, 2.24, 2.68, 2.68, 2.68, 2.68, 3.07, 3.07, 2.63, 2.63, 2.6, 2.4, 2.4, 2.4, 2.15, 2.15, 2.5, 2.5, 2.91, 2.91, 3.07, 3.07, 2.68, 2.68, 0.89, 0.45, 0.0, 0.45, 0.45, -0.45, -0.89, -0.89, -0.89, 0.45, -1.2, -2.12, -1.7, -0.95, -0.63, -1.2, -0.6, -0.45, -1.2, -1.26, -0.63, 0.0, 0.0, 0.45, -0.6, 1.2, 4.73, 3.98, 0.89, 0.0, 1.99, 3.2, 3.0, 1.27, 0.0, -0.63, -0.45, -0.0, 0.45, -0.0, 0.45, 0.45, 0.45, -0.0, -0.95, -2.15, -2.5, -2.24, -2.79, -2.51, -2.23, -2.23, 0.59, 0.59, 0.51, 0.51, 0.51, 0.51, 0.61, 0.61, 0.53, 0.53, 0.65, 0.65, 1.2, 1.24, 1.24, 1.24, 1.24, 1.58, 1.49, 2.12, 2.12, 2.17, 2.24, 2.68, 2.68, 2.68, 2.68, 2.68, 2.63, 2.63, 3.07, 3.07, 3.07, 2.91, 2.91, 2.8, 2.4, 2.4, 2.4, 2.8, 2.8, 2.91, 2.91, 3.07, 2.68, 2.68, 2.24, 1.79, 0.89, 0.89, 0.0, 0.45, -0.89, -0.89, -1.34, -0.89, -0.0, -0.63, -1.34, -0.89, 0.45, 0.6, 0.0, -0.89, -0.95, -0.95, -0.6, -0.0, -0.0, -0.0, 0.0, 1.58, 4.47, 8.19, 5.86, 2.91, 1.58, 2.07, 3.22, 2.23, 1.2, 0.0, -1.2, -0.89, -0.89, -0.45, 0.0, 0.0, -0.0, -0.57, -0.8, -2.21, -2.79, -3.07, -2.91, -2.53, -2.21, -2.21, 0.51, 0.51, 0.51, 0.51, 0.51, 0.61, 0.61, 0.61, 0.53, 0.65, 0.65, 1.2, 1.2, 1.24, 1.24, 1.24, 1.24, 1.58, 1.86, 1.86, 2.12, 2.12, 2.17, 2.24, 2.68, 2.68, 2.68, 2.68, 2.63, 2.63, 2.63, 3.07, 2.91, 2.91, 2.91, 2.91, 2.91, 2.8, 2.4, 2.4, 2.4, 2.4, 2.4, 2.6, 2.6, 2.24, 2.24, 1.79, 1.34, 0.89, 0.0, 0.0, -0.45, -0.89, -1.34, -0.89, 0.45, 0.0, 0.0, -0.6, 0.0, 0.8, 0.95, 0.0, -0.63, -0.6, -0.6, -0.6, -0.63, 0.45, 0.0, 0.71, 3.53, 6.11, 8.24, 5.06, 1.58, 1.16, 2.79, 3.14, 2.53, -0.63, -2.68, -2.91, -2.24, -1.34, 0.45, -0.0, -0.54, -1.2, -0.57, -1.26, -1.61, -1.9, -1.79, -1.2, -1.26, -1.26, 0.51, 0.51, 0.61, 0.61, 0.61, 0.61, 0.61, 0.61, 0.53, 0.65, 0.65, 1.2, 1.0, 1.24, 1.24, 1.24, 1.24, 1.58, 1.86, 1.86, 2.12, 2.12, 2.17, 2.24, 2.68, 2.68, 2.68, 2.68, 2.6, 2.6, 2.6, 2.4, 2.91, 2.91, 2.91, 2.91, 2.91, 2.91, 2.91, 2.8, 2.4, 2.4, 2.6, 2.6, 2.17, 2.12, 1.7, 1.79, 1.34, 0.95, 0.63, 0.63, 0.0, -0.89, -0.89, -0.89, -0.45, 0.45, 0.0, 0.0, -0.71, 0.0, 1.26, 1.2, 0.0, -0.63, -0.63, 0.45, -0.45, -0.6, 0.0, 0.53, 2.5, 4.02, 5.05, 3.32, 0.59, 0.0, 1.84, 3.16, 2.79, 0.0, -3.6, -3.7, -3.07, -1.79, -0.45, -0.8, -1.16, -1.0, -0.57, -0.0, -0.6, -0.6, -0.63, 0.45, 1.2, 1.2, 0.61, 0.61, 0.61, 0.61, 0.61, 0.61, 0.61, 0.61, 0.53, 0.65, 0.65, 1.2, 1.0, 1.24, 1.24, 1.24, 1.24, 1.58, 1.86, 1.86, 2.12, 2.12, 2.17, 2.24, 2.68, 2.68, 2.68, 2.68, 2.63, 2.6, 2.6, 2.4, 2.4, 2.91, 2.91, 2.91, 2.91, 2.68, 2.68, 2.8, 2.4, 2.4, 2.4, 2.17, 2.17, 2.12, 2.12, 1.6, 1.6, 1.2, 0.95, 0.95, 0.89, 0.45, -0.89, -1.34, -1.34, -0.89, -0.89, -0.89, -0.8, 0.0, 0.57, 0.6, 0.0, -0.45, -0.45, 0.0, 0.0, -0.6, 0.0, 0.53, 1.8, 1.84, 1.79, 1.61, 1.16, -0.0, 0.57, 3.14, 3.07, 1.49, -3.6, -4.0, -3.53, -3.13, -3.13, -2.5, -1.88, -0.71, -0.4, 0.0, -0.0, -0.0, -0.0, 0.45, 2.12, 2.12, 0.61, 0.61, 0.61, 0.61, 0.61, 0.61, 0.61, 0.61, 0.53, 0.53, 0.65, 1.2, 1.0, 1.24, 1.24, 1.24, 1.24, 1.86, 1.86, 1.86, 2.12, 2.12, 2.17, 2.24, 2.68, 2.68, 2.68, 2.68, 2.63, 2.63, 2.6, 2.4, 2.4, 2.8, 2.91, 2.91, 2.68, 2.68, 2.68, 2.5, 2.8, 2.4, 2.4, 1.6, 1.2, 2.17, 2.12, 1.86, 1.58, 1.6, 1.2, 0.95, 1.34, 0.89, 0.45, -2.12, -1.6, -1.6, -1.7, -1.2, -0.95, 0.0, 0.0, 0.0, -0.45, -0.6, 0.45, 0.0, -0.63, -0.6, 0.0, 1.9, 3.14, 1.94, 1.23, 1.61, 2.68, 1.7, 0.89, 1.58, 2.5, 2.48, -1.79, -6.28, -5.02, -4.77, -5.2, -4.3, -2.49, -1.2, -0.45, 0.0, 0.0, -0.0, -0.0, 0.45, 1.79, 1.79, 0.61, 0.61, 0.61, 0.61, 0.61, 0.61, 0.61, 0.61, 0.53, 0.65, 0.65, 1.2, 1.24, 1.24, 1.24, 1.24, 1.24, 1.86, 1.86, 1.86, 2.12, 2.12, 2.17, 2.24, 2.24, 2.68, 2.68, 2.68, 2.68, 2.63, 2.6, 2.4, 2.4, 2.4, 2.91, 2.91, 2.68, 2.68, 2.68, 2.5, 2.5, 2.4, 2.4, 2.23, 1.86, 1.2, 1.7, 2.23, 1.24, 1.26, 1.26, 0.95, 1.2, 1.34, 0.0, -1.6, -2.4, -2.68, -1.86, -1.6, -0.63, 0.0, 0.0, -1.58, -1.34, -0.6, -0.6, -0.63, -0.45, -0.63, 0.0, 1.86, 4.02, 5.64, 6.01, 4.83, 3.48, 3.07, 2.12, 1.26, 1.9, 3.08, 0.0, -6.04, -9.42, -7.98, -6.85, -5.32, -3.98, -2.63, -2.17, -1.34, -0.89, 0.45, 0.63, 1.2, 1.86, 1.86, 1.16, 1.16, 1.16, 1.16, 0.61, 0.61, 0.61, 0.61, 0.53, 0.65, 0.65, 1.2, 1.24, 1.24, 1.24, 1.24, 1.86, 1.86, 1.86, 1.86, 2.12, 2.12, 2.17, 2.24, 2.24, 2.68, 2.68, 2.68, 2.68, 2.63, 2.63, 2.6, 2.4, 2.4, 2.8, 2.91, 2.68, 2.68, 2.68, 2.5, 2.5, 2.5, 2.15, 1.9, 1.9, 1.26, 1.58, 1.9, 1.24, 0.8, 0.8, 0.8, 0.95, 1.2, 0.95, -0.6, -2.23, -2.15, -2.5, -1.26, -0.6, -0.8, -1.86, -2.17, -1.34, -0.95, -0.95, -0.63, -0.0, 0.89, 0.0, 0.0, 2.68, 5.44, 7.15, 7.2, 6.68, 4.11, 3.14, 1.9, 0.65, 1.13, 0.63, -3.53, -7.87, -9.86, -9.63, -5.94, -4.73, -3.87, -3.82, -2.91, -2.17, -1.2, -0.0, 0.99, 1.88, 1.88, 1.16, 1.16, 1.16, 1.16, 1.16, 1.16, 0.61, 0.61, 0.53, 1.2, 1.2, 1.2, 1.2, 1.24, 1.24, 1.58, 1.86, 1.86, 1.86, 1.86, 2.12, 2.12, 2.17, 2.24, 2.24, 2.24, 2.68, 2.68, 1.79, 2.63, 2.63, 2.6, 2.6, 2.4, 2.4, 2.8, 2.68, 2.68, 2.68, 2.5, 2.5, 2.5, 2.5, 2.5, 2.15, 1.88, 1.88, 1.9, 1.24, 0.57, 0.8, 0.8, 0.8, 1.2, 1.6, 0.0, -1.26, -1.86, -1.86, -2.4, -1.86, -2.15, -2.6, -2.24, -1.49, -0.6, -0.0, 0.45, 0.45, 1.6, 1.24, 0.0, 0.0, 2.8, 4.52, 4.02, 3.14, 2.51, 2.53, 2.15, 1.24, 0.99, 1.58, 1.86, -1.34, -4.88, -7.51, -7.61, -4.93, -4.52, -4.11, -3.6, -2.91, -2.4, -0.0, -0.0, 0.61, 0.61, 1.33, 1.33, 1.16, 1.16, 1.16, 1.16, 1.16, 1.16, 1.0, 1.2, 1.2, 1.2, 1.2, 1.24, 1.24, 1.58, 1.86, 1.86, 1.86, 2.12, 2.12, 2.12, 2.17, 2.24, 2.24, 2.24, 2.68, 2.68, 2.6, 1.79, 2.6, 2.6, 2.6, 2.4, 2.4, 2.8, 2.68, 2.68, 2.68, 2.5, 2.5, 2.5, 2.5, 2.5, 2.5, 2.5, 1.9, 1.9, 1.24, 1.24, 0.8, 0.8, 0.8, 1.26, 1.6, 1.26, 0.0, -1.7, -2.63, -3.39, -4.27, -2.4, -1.79, -2.12, -1.49, -0.95, -0.0, 0.0, 0.0, 0.6, 0.63, 0.0, 0.0, 1.9, 4.47, 3.58, 0.6, 0.0, 1.34, 3.53, 4.43, 4.47, 4.47, 4.47, 6.71, 4.47, -0.0, -4.74, -5.09, -4.09, -4.4, -4.11, -3.82, -3.07, -2.5, -0.65, -0.0, -0.0, 1.13, 1.13, 1.33, 1.16, 1.16, 1.16, 1.16, 1.16, 1.0, 1.2, 1.2, 1.2, 1.49, 1.24, 1.58, 1.86, 1.86, 1.86, 1.86, 2.12, 2.12, 2.12, 2.24, 2.24, 2.24, 2.24, 2.24, 2.68, 2.6, 2.6, 2.6, 2.6, 2.4, 2.4, 2.4, 2.8, 2.8, 2.68, 2.68, 2.5, 2.5, 2.5, 2.5, 2.5, 2.5, 2.5, 2.15, 1.9, 1.9, 1.24, 1.24, 1.26, 1.26, 1.26, 1.26, 1.26, 0.6, -0.8, -3.53, -4.3, -2.98, -1.79, -1.79, -1.79, -1.79, -1.34, -0.89, -0.45, 0.45, 0.0, -0.45, 0.45, 0.6, 2.48, 6.64, 6.55, 3.58, 2.5, 3.35, 5.2, 7.01, 6.67, 6.26, 5.81, 5.81, 8.49, 5.24, -1.27, -3.43, -4.66, -4.27, -4.52, -4.11, -3.82, -3.39, -1.61, -1.13, -1.13, 1.13, 1.13, 1.33, 1.33, 1.16, 1.16, 1.16, 1.16, 1.2, 1.2, 1.2, 1.2, 1.24, 1.24, 1.58, 1.86, 1.86, 1.86, 2.12, 2.12, 2.12, 2.12, 2.24, 2.24, 2.24, 2.24, 2.24, 2.68, 2.68, 2.6, 2.6, 2.4, 2.4, 2.4, 2.4, 2.4, 2.8, 2.5, 2.68, 2.5, 2.5, 2.5, 2.5, 2.5, 2.5, 2.5, 2.5, 2.15, 1.9, 1.9, 1.58, 1.24, 1.24, 1.58, 1.26, 1.26, 1.26, 0.0, -1.9, -3.32, -3.32, -1.79, -2.24, -2.24, -1.79, -1.79, -1.79, -1.34, -1.34, -1.2, -1.2, 0.0, 2.12, 6.07, 9.2, 9.58, 9.36, 9.08, 9.2, 9.33, 8.47, 7.15, 5.78, 4.92, 4.47, 6.04, 4.0, -0.0, -1.61, -2.84, -3.43, -4.09, -4.0, -4.24, -3.82, -3.6, -1.84, -1.84, 1.6, 1.6, 1.84, 1.84, 1.61, 1.16, 1.16, 1.16, 1.2, 1.2, 1.2, 1.2, 1.24, 1.24, 1.58, 1.86, 1.86, 1.86, 2.12, 2.12, 2.12, 2.12, 2.24, 2.24, 2.24, 2.24, 2.24, 2.68, 2.68, 2.6, 2.6, 2.6, 2.4, 2.4, 2.4, 2.4, 2.8, 2.5, 2.5, 2.5, 2.5, 2.5, 2.5, 2.5, 2.5, 2.5, 2.5, 2.5, 2.5, 2.15, 1.9, 1.9, 1.24, 1.24, 1.24, 1.24, 1.58, 1.26, 0.0, -1.9, -3.07, -3.58, -3.13, -2.68, -2.24, -2.24, -2.24, -1.79, -1.34, -0.89, -0.89, -0.32, 2.24, 6.71, 9.39, 8.46, 8.49, 9.54, 10.32, 9.62, 8.02, 4.92, 3.13, 1.79, 1.24, 1.16, 1.27, 1.27, 0.51, -0.53, -1.84, -2.84, -3.45, -3.45, -3.6, -3.6, -2.79, -2.79, 1.6, 1.6, 1.84, 1.84, 1.61, 1.61, 1.61, 1.61, 1.4, 1.2, 1.2, 1.49, 1.24, 1.58, 1.58, 1.86, 1.86, 1.86, 2.12, 2.12, 2.12, 2.24, 2.24, 2.24, 2.24, 2.24, 2.24, 2.68, 2.6, 2.6, 2.6, 2.6, 2.4, 2.4, 2.4, 2.4, 2.15, 2.5, 2.5, 2.5, 2.5, 2.5, 2.5, 1.86, 2.5, 2.5, 2.5, 2.5, 2.5, 2.5, 1.9, 1.9, 1.9, 1.9, 1.9, 1.58, 1.24, 1.58, 1.24, 0.0, -2.4, -3.53, -3.58, -2.63, -2.24, -1.79, -2.12, -1.7, -1.2, -0.89, -0.89, -0.89, 0.6, 4.98, 8.4, 6.22, 4.43, 5.16, 7.45, 6.22, 4.02, 1.79, -0.0, -0.57, -0.0, 0.57, 1.73, 2.66, 2.44, 1.13, -0.53, -1.88, -2.53, -3.07, -3.45, -3.6, -3.6, -3.35, 1.84, 1.84, 1.84, 1.84, 1.61, 1.61, 1.61, 1.88, 1.88, 1.61, 1.2, 1.9, 1.58, 1.58, 1.86, 1.86, 1.86, 2.12, 2.12, 2.12, 2.12, 2.24, 2.24, 2.24, 2.24, 2.24, 2.24, 2.24, 2.6, 2.6, 2.6, 2.6, 2.4, 2.4, 2.4, 2.15, 2.15, 2.5, 2.5, 2.5, 2.5, 2.5, 2.21, 1.86, 2.5, 3.07, 2.79, 2.53, 2.21, 2.5, 2.5, 1.9, 1.9, 1.9, 1.9, 1.9, 1.9, 1.9, 1.9, 1.9, 0.0, -2.4, -2.24, -2.68, -2.24, -1.79, -1.34, -1.34, -0.89, -0.45, -0.45, -0.45, -0.0, 2.79, 5.69, 6.25, 3.98, 3.72, 6.0, 5.36, 2.79, 0.0, -0.89, -0.54, -0.57, -0.0, 1.73, 2.66, 2.11, 0.63, -0.61, -1.9, -2.68, -3.32, -3.74, -3.6, -4.0, -3.6, 1.84, 1.84, 1.84, 1.84, 1.84, 1.61, 1.61, 1.88, 1.88, 1.61, 1.9, 1.9, 1.58, 1.58, 1.86, 1.86, 1.86, 2.12, 2.12, 2.12, 2.12, 2.24, 2.24, 2.24, 2.24, 2.24, 2.24, 2.17, 2.6, 2.6, 2.6, 2.4, 2.4, 2.4, 2.4, 2.15, 2.15, 2.5, 2.5, 2.5, 2.5, 2.21, 2.21, 2.21, 1.58, 2.79, 2.79, 2.53, 2.21, 2.21, 1.88, 1.9, 1.9, 1.9, 1.9, 1.9, 1.61, 1.9, 1.9, 2.5, 1.9, 0.0, -2.6, -1.79, -1.79, -1.79, -1.79, -1.7, -1.34, -0.45, 0.45, 0.0, 0.45, 1.34, 3.45, 5.09, 3.16, 2.24, 3.16, 3.76, 2.22, 0.0, -0.63, -0.57, -0.57, -0.0, 0.57, 1.23, 0.63, -0.0, -1.84, -2.91, -3.39, -3.32, -3.82, -4.24, -4.3, -4.0, 1.84, 1.84, 1.84, 1.84, 1.84, 1.61, 1.88, 1.88, 1.88, 1.61, 1.9, 1.9, 1.58, 1.58, 1.86, 1.86, 1.86, 2.12, 2.12, 2.12, 2.24, 2.24, 2.24, 2.24, 2.24, 2.24, 2.24, 2.17, 2.6, 2.6, 2.6, 2.4, 2.4, 2.4, 2.4, 2.15, 2.15, 2.5, 2.5, 2.21, 2.21, 2.53, 2.53, 2.53, 2.23, 1.9, 2.51, 2.53, 1.88, 1.88, 1.88, 1.88, 1.88, 1.88, 1.88, 1.88, 1.88, 1.88, 1.61, 2.5, 2.5, 1.49, -0.63, -2.24, -2.24, -2.24, -1.7, -2.68, -1.79, -0.89, 0.45, 0.0, 0.0, 0.45, 0.95, 1.88, 1.84, 0.57, 0.95, 1.13, 1.13, 0.99, 1.79, -0.0, -0.51, -0.59, -0.0, -0.0, -0.66, -1.8, -3.14, -3.82, -3.82, -3.74, -4.24, -4.24, -4.3, -4.3, 2.23, 2.23, 2.23, 1.84, 1.84, 1.88, 1.88, 1.88, 1.88, 1.61, 1.9, 1.9, 1.58, 1.86, 1.86, 1.86, 1.86, 2.12, 2.12, 1.79, 2.24, 2.24, 2.24, 2.24, 2.24, 2.24, 2.17, 2.17, 2.6, 2.6, 2.4, 2.4, 2.4, 2.4, 2.4, 2.15, 2.15, 2.5, 2.5, 2.21, 2.21, 2.53, 2.53, 2.53, 2.23, 2.51, 2.23, 1.88, 1.88, 1.88, 1.88, 1.88, 1.88, 1.88, 1.88, 1.88, 1.88, 1.88, 1.88, 1.88, 2.21, 1.88, 0.0, -1.34, -2.24, -1.79, -1.79, -2.24, -1.34, -1.34, -0.45, 0.0, 0.0, 0.0, 0.0, 0.89, 2.6, 3.07, 3.53, 3.13, 2.63, 4.11, 6.8, 3.32, -0.54, -1.33, -1.33, -1.33, -1.84, -2.84, -3.14, -3.6, -3.82, -3.82, -4.24, -4.41, -4.41, -4.41, 2.23, 2.23, 2.23, 2.23, 2.23, 1.88, 1.88, 1.88, 1.88, 1.9, 1.9, 1.9, 1.9, 1.86, 1.86, 1.86, 2.12, 2.12, 1.7, 1.79, 1.79, 2.24, 2.24, 2.24, 2.24, 2.24, 2.17, 2.17, 2.6, 2.4, 2.4, 2.4, 2.4, 2.4, 2.15, 2.15, 2.15, 2.5, 2.21, 2.21, 2.53, 2.53, 2.53, 2.53, 2.53, 2.53, 2.53, 1.88, 1.88, 1.88, 1.88, 1.88, 1.88, 1.88, 1.88, 1.88, 1.88, 1.88, 1.88, 1.88, 2.21, 2.53, 0.65, -0.95, -1.79, -1.79, -2.68, -2.24, -1.34, -0.89, -0.45, 0.0, 0.0, 0.0, 0.57, 1.24, 3.53, 4.92, 7.92, 8.24, 8.65, 10.47, 11.05, 3.72, -1.24, -2.23, -1.84, -1.84, -2.21, -2.5, -3.07, -3.45, -3.6, -3.97, -4.41, -4.41, -4.41, -4.41, 2.23, 2.23, 2.23, 2.23, 2.21, 2.21, 2.21, 2.21, 1.88, 1.9, 1.9, 1.9, 1.9, 1.86, 1.86, 1.86, 2.12, 2.12, 1.7, 1.79, 1.79, 1.79, 2.24, 2.24, 2.24, 2.24, 2.17, 2.17, 2.6, 2.4, 2.4, 2.4, 2.4, 2.15, 2.15, 1.9, 2.5, 2.21, 2.21, 2.21, 2.53, 2.53, 2.23, 2.23, 2.53, 2.53, 2.53, 1.88, 1.88, 1.88, 1.88, 1.88, 1.88, 1.88, 1.88, 1.88, 1.88, 1.88, 1.88, 1.88, 2.53, 2.53, 1.4, -0.71, -1.34, -1.79, -2.68, -1.79, -1.34, -0.89, 0.45, 0.0, 0.0, 0.57, 1.26, 1.7, 3.07, 4.92, 8.36, 9.3, 10.81, 11.73, 12.59, 5.31, -1.9, -2.79, -2.53, -2.21, -2.15, -1.86, -3.82, -3.07, -3.32, -3.97, -3.97, -3.97, -3.97, -3.97, 2.23, 2.23, 2.23, 2.23, 2.21, 2.21, 2.21, 2.21, 2.5, 1.9, 1.9, 1.9, 2.23, 1.86, 1.86, 2.12, 2.12, 2.12, 1.7, 1.79, 1.79, 1.79, 2.24, 2.24, 2.24, 2.17, 2.17, 2.6, 2.6, 2.4, 2.4, 2.4, 2.15, 2.15, 2.15, 1.9, 1.88, 2.21, 2.21, 2.21, 2.53, 2.23, 2.23, 2.23, 2.23, 2.23, 2.53, 2.53, 1.88, 1.88, 1.88, 1.88, 1.88, 1.88, 1.88, 1.88, 1.88, 1.88, 1.88, 1.88, 2.53, 2.53, 1.88, 0.0, -1.86, -1.79, -2.68, -1.79, -1.34, -0.89, 0.0, 0.0, 0.0, 0.4, 0.89, 0.45, 1.79, 4.02, 6.07, 6.39, 7.82, 10.9, 12.94, 7.54, -0.0, -2.91, -2.91, -2.68, -2.4, -2.0, -3.39, -2.5, -3.32, -3.51, -3.97, -3.97, -3.97, -3.97, 2.23, 2.23, 2.23, 2.53, 2.21, 2.21, 2.21, 2.5, 2.5, 2.15, 1.9, 1.9, 2.23, 1.86, 1.86, 2.12, 2.12, 2.12, 1.79, 1.79, 1.79, 1.79, 2.24, 2.24, 2.24, 2.17, 2.17, 2.6, 2.4, 2.4, 2.4, 2.4, 2.15, 2.15, 2.15, 2.21, 1.88, 1.88, 2.21, 2.21, 2.23, 2.23, 2.23, 2.23, 2.23, 2.23, 2.23, 2.23, 1.84, 1.84, 1.61, 1.88, 1.88, 1.88, 1.88, 1.88, 1.88, 1.88, 1.88, 1.88, 2.21, 2.53, 2.53, 1.2, -0.71, -1.34, -2.24, -1.79, -1.79, -0.8, 0.0, 0.0, -0.63, -0.63, -0.45, 0.45, 0.89, 2.63, 3.14, 2.73, 4.65, 9.27, 12.29, 9.19, 1.84, -2.68, -3.13, -2.91, -2.91, -1.86, -1.86, -2.4, -2.91, -3.32, -3.53, -3.53, -3.53, -3.53, 2.23, 2.23, 2.23, 2.21, 2.21, 2.21, 2.21, 2.5, 2.5, 2.15, 2.15, 2.23, 1.86, 1.86, 1.86, 2.12, 2.12, 1.7, 1.79, 1.79, 1.79, 1.79, 2.24, 2.24, 2.17, 2.17, 2.17, 2.6, 2.4, 2.4, 2.4, 2.15, 2.15, 2.15, 2.21, 1.88, 1.88, 1.88, 1.88, 2.53, 2.23, 2.23, 2.23, 2.23, 2.23, 2.23, 2.23, 2.23, 2.23, 1.84, 1.84, 1.61, 1.61, 1.61, 1.88, 1.88, 1.88, 1.88, 1.88, 1.88, 1.88, 2.21, 2.53, 1.88, 0.0, -0.89, -2.4, -2.4, -2.68, -1.7, -1.6, -1.26, -1.2, -1.2, -1.34, -0.89, 0.0, 1.26, 1.84, 2.0, 3.16, 6.7, 9.3, 7.59, 2.86, -1.2, -2.68, -2.68, -2.68, -1.88, -1.61, -1.9, -2.15, -2.4, -3.07, -3.53, -3.53, -3.53, 2.23, 2.23, 2.53, 2.21, 2.21, 2.21, 2.5, 2.5, 2.5, 2.15, 2.15, 2.4, 2.23, 1.86, 2.12, 2.12, 2.12, 1.79, 1.79, 1.79, 1.79, 1.79, 2.24, 2.12, 2.17, 2.17, 2.17, 2.4, 2.4, 2.4, 2.4, 2.15, 2.15, 2.15, 2.21, 1.88, 1.88, 1.88, 1.88, 1.84, 2.23, 2.23, 2.23, 2.23, 2.51, 2.51, 2.51, 2.23, 2.23, 2.23, 1.84, 1.84, 1.84, 1.61, 1.61, 1.88, 1.88, 1.88, 1.61, 1.61, 1.61, 1.88, 2.21, 2.53, 1.2, -0.63, -1.79, -2.12, -2.17, -1.79, -1.34, -0.89, -1.6, -1.7, -1.79, -1.34, -0.63, -0.0, 0.53, 1.6, 2.51, 3.15, 4.56, 5.59, 3.43, 0.89, -1.2, -2.15, -2.91, -2.21, -1.16, -1.2, -1.58, -1.86, -2.6, -3.07, -3.07, -3.07, 2.23, 2.23, 2.53, 2.21, 2.21, 2.21, 2.5, 2.5, 2.5, 2.15, 2.4, 2.4, 2.4, 2.0, 2.12, 2.12, 2.12, 1.79, 1.79, 1.79, 1.79, 1.79, 2.24, 2.12, 2.12, 2.17, 2.17, 2.4, 2.4, 2.4, 2.4, 2.15, 2.15, 2.5, 1.88, 1.88, 1.88, 1.88, 1.88, 1.84, 1.84, 2.23, 2.51, 2.51, 2.51, 2.23, 2.51, 2.51, 2.51, 2.23, 1.84, 1.84, 1.84, 1.84, 1.61, 1.61, 1.61, 1.61, 1.61, 1.61, 1.61, 1.61, 1.88, 2.21, 1.2, 0.0, -1.7, -1.79, -1.79, -1.34, -0.89, 0.0, 0.0, -1.2, -1.34, -1.34, -1.34, -0.6, -0.0, 0.53, 1.84, 1.8, 2.23, 3.43, 4.3, -0.0, -0.61, -0.99, -2.68, -2.68, -1.0, -0.0, -0.57, -1.6, -1.7, -2.6, -2.6, -2.6, 2.23, 2.23, 2.53, 2.53, 2.21, 2.21, 2.5, 2.5, 2.5, 2.15, 2.4, 2.4, 2.4, 2.17, 2.17, 2.12, 2.24, 2.24, 1.79, 1.79, 1.79, 1.79, 2.12, 2.12, 2.12, 2.17, 2.17, 2.4, 2.4, 2.4, 2.15, 2.15, 2.5, 2.5, 2.21, 1.88, 1.88, 1.88, 1.84, 1.84, 1.84, 2.23, 2.23, 2.23, 2.23, 2.23, 2.23, 2.23, 2.23, 2.51, 2.51, 1.84, 1.84, 1.84, 1.84, 1.84, 1.61, 1.61, 1.61, 1.84, 1.84, 1.61, 1.61, 1.88, 1.2, 0.0, -1.26, -1.86, -1.49, -1.6, -1.2, 0.0, 0.89, 0.89, -0.89, -1.34, -1.34, -1.2, -0.57, -0.0, 1.2, 1.61, 1.84, 3.6, 4.02, 0.54, -0.0, -0.0, -1.86, -3.6, -2.24, -0.0, -0.0, -0.63, -1.34, -2.24, -2.24, -2.24, 2.23, 2.23, 2.53, 2.53, 2.21, 2.5, 2.5, 2.5, 2.5, 2.4, 2.4, 2.4, 2.4, 2.17, 2.17, 2.17, 2.24, 2.24, 2.24, 1.79, 2.24, 2.24, 2.12, 2.12, 2.12, 2.17, 2.0, 2.4, 2.4, 2.4, 2.15, 2.15, 2.5, 2.5, 2.21, 1.88, 1.88, 1.61, 1.84, 1.84, 1.84, 2.07, 2.23, 2.23, 2.23, 2.23, 2.23, 2.23, 2.23, 2.23, 2.23, 1.8, 1.84, 1.84, 1.84, 1.84, 1.84, 1.84, 1.84, 1.84, 1.84, 1.61, 1.61, 1.88, 1.2, 0.0, -1.24, -1.2, -1.2, -1.9, -1.58, -0.6, 0.63, 1.2, 0.0, -0.45, -0.45, -0.63, -0.57, -0.57, -0.0, 1.2, 2.21, 4.92, 3.58, -0.0, -0.0, -0.0, -1.79, -4.27, -3.6, -0.8, 0.0, 0.0, -0.89, -1.79, -1.79, -1.79, 2.23, 2.23, 2.53, 2.53, 2.21, 2.5, 2.5, 2.5, 2.5, 2.4, 2.4, 2.4, 2.4, 2.6, 2.17, 2.17, 2.24, 2.24, 2.24, 2.24, 2.24, 2.24, 2.12, 2.12, 2.12, 1.86, 2.0, 2.4, 2.4, 2.4, 2.15, 2.15, 2.5, 2.21, 2.21, 1.88, 1.88, 1.84, 1.84, 1.84, 1.84, 1.8, 2.23, 2.23, 2.23, 2.23, 2.48, 2.23, 2.23, 2.23, 1.8, 1.8, 1.8, 1.84, 1.84, 1.84, 1.84, 1.84, 1.84, 1.84, 1.84, 1.84, 1.61, 1.61, 1.4, 0.61, 0.0, -0.66, -1.4, -1.61, -1.24, -0.57, 0.0, 0.0, 0.0, 0.45, -0.45, -0.63, -0.0, -0.0, -0.0, 0.57, 3.82, 3.98, 1.7, -0.65, -0.59, -0.59, -1.86, -4.11, -3.88, -1.58, 0.0, 0.0, -0.89, -1.79, -1.79, -1.79, 2.23, 2.23, 2.53, 2.53, 2.21, 2.5, 2.5, 2.5, 2.5, 2.8, 2.4, 2.4, 2.6, 2.6, 2.17, 2.24, 2.24, 2.24, 2.24, 2.24, 2.24, 2.12, 2.12, 2.12, 2.17, 2.0, 2.4, 2.4, 2.4, 2.15, 2.15, 2.5, 2.5, 2.21, 2.21, 1.88, 1.88, 1.84, 1.84, 1.84, 1.84, 1.8, 2.23, 2.23, 2.48, 2.48, 2.48, 2.48, 2.48, 2.23, 1.8, 1.8, 1.8, 1.8, 1.6, 1.84, 1.84, 1.84, 1.84, 1.84, 1.84, 1.84, 1.84, 1.61, 1.61, 1.16, 0.0, -0.66, -1.2, -1.58, -0.95, -0.6, -0.71, -0.54, -0.57, -0.63, -0.89, -0.89, -0.63, -0.0, -0.0, -0.0, 2.4, 2.6, 0.89, -0.0, -0.61, -0.61, -1.0, -3.07, -3.72, -1.88, 0.0, -0.63, -1.34, -1.79, -1.79, -1.79, 2.53, 2.53, 2.53, 2.53, 2.53, 2.5, 2.5, 2.5, 2.5, 2.8, 2.4, 2.4, 2.6, 2.6, 2.6, 2.24, 2.24, 2.24, 2.24, 2.24, 2.24, 2.17, 2.17, 2.17, 2.0, 2.0, 2.4, 2.4, 2.4, 2.15, 2.15, 2.5, 2.5, 2.21, 2.21, 2.21, 1.84, 1.84, 1.84, 1.84, 1.8, 1.8, 2.23, 2.48, 2.48, 2.22, 2.22, 2.22, 2.22, 2.48, 2.48, 1.8, 1.8, 1.8, 1.8, 1.6, 1.6, 1.84, 1.84, 1.84, 1.84, 1.84, 1.84, 1.84, 1.84, 1.84, 0.59, -0.59, -2.07, -1.86, -1.7, -1.7, -1.86, -1.58, -1.2, -0.45, -0.45, -0.89, -0.89, -0.45, -0.45, 0.45, 1.34, 1.79, 1.2, 0.45, -0.0, -0.0, -0.0, -1.34, -2.5, -2.21, -1.26, -0.4, -1.2, -1.79, -1.79, -1.79, 2.53, 2.53, 2.53, 2.53, 2.53, 2.5, 2.5, 2.5, 2.8, 2.8, 2.4, 2.4, 2.6, 2.6, 2.6, 2.24, 2.24, 2.24, 2.24, 2.24, 2.24, 2.17, 2.17, 2.17, 2.4, 2.4, 2.4, 2.4, 2.4, 2.15, 2.15, 2.5, 2.21, 2.21, 2.21, 2.53, 1.84, 1.84, 1.84, 1.84, 1.8, 1.8, 2.23, 2.48, 2.22, 2.22, 2.22, 2.22, 2.22, 2.22, 2.22, 1.8, 1.8, 1.8, 1.8, 1.8, 1.8, 1.6, 1.6, 1.84, 1.84, 1.84, 1.84, 1.84, 2.23, 2.51, 1.13, 0.0, -2.53, -2.0, -2.17, -2.17, -2.4, -1.86, -1.2, -0.45, 0.45, -0.89, -0.63, -0.63, -0.63, 0.0, 0.95, 2.12, 1.86, 0.63, -0.0, -0.0, -0.0, -0.32, -1.49, -2.5, -1.58, -0.57, -0.8, -1.7, -1.7, -1.7, 2.53, 2.53, 2.53, 2.53, 2.53, 2.5, 2.5, 2.5, 2.8, 2.8, 2.4, 2.6, 2.6, 2.6, 2.6, 2.68, 2.24, 2.24, 2.24, 2.24, 2.17, 2.17, 2.17, 2.6, 2.4, 2.4, 2.4, 2.4, 2.15, 2.15, 2.5, 2.5, 2.21, 2.21, 2.53, 2.23, 2.23, 1.84, 1.84, 1.8, 1.8, 1.8, 2.23, 2.22, 2.22, 2.22, 2.22, 2.22, 2.22, 2.22, 2.22, 1.76, 1.76, 1.8, 1.8, 1.8, 1.8, 1.8, 1.8, 1.6, 1.6, 1.84, 1.84, 1.84, 2.23, 2.23, 1.8, 0.0, -2.53, -2.4, -2.4, -2.23, -1.86, -1.7, -1.2, -0.63, 0.45, 0.45, -0.63, -0.63, -0.6, 0.0, 0.57, 2.15, 2.5, 1.24, 0.0, 0.32, 0.45, 0.45, 0.0, -1.86, -1.2, -0.65, -0.71, -1.2, -1.2, -1.2, 2.79, 2.79, 2.53, 2.53, 2.86, 2.68, 2.68, 2.91, 2.8, 2.8, 2.4, 2.6, 2.6, 2.6, 2.68, 2.68, 2.68, 2.68, 2.68, 2.24, 2.17, 2.6, 2.6, 2.6, 2.4, 2.4, 2.4, 2.4, 2.15, 2.5, 2.5, 2.5, 2.21, 2.21, 2.53, 2.23, 2.23, 2.23, 1.84, 1.8, 1.8, 1.8, 2.48, 2.22, 2.22, 2.22, 2.44, 2.44, 2.44, 2.22, 2.22, 1.76, 1.76, 1.76, 1.58, 1.8, 1.8, 1.8, 1.8, 1.8, 1.8, 1.8, 1.8, 1.8, 2.23, 2.48, 2.23, 0.0, -1.88, -2.21, -2.79, -1.9, -1.86, -1.2, -1.2, -1.26, -1.2, -0.89, -0.45, -0.63, -0.6, 0.0, 0.71, 2.5, 3.2, 2.21, 0.71, 0.63, 1.34, 1.7, 1.26, 0.0, -0.54, -0.65, -0.54, -0.63, -0.63, -0.63, 2.79, 2.79, 2.79, 2.79, 2.68, 2.68, 2.68, 2.8, 2.8, 2.4, 2.6, 2.6, 2.6, 2.6, 2.68, 2.68, 2.68, 2.68, 2.68, 2.68, 2.6, 2.6, 2.6, 2.4, 2.4, 2.4, 2.4, 2.4, 2.5, 2.5, 2.5, 2.21, 2.21, 2.53, 2.53, 2.23, 2.23, 2.23, 2.23, 1.8, 1.8, 1.8, 2.22, 2.22, 2.22, 2.44, 2.44, 2.44, 2.44, 2.44, 2.44, 1.76, 1.76, 1.76, 1.76, 1.76, 1.58, 1.58, 1.8, 1.8, 1.8, 1.8, 1.8, 1.8, 2.23, 2.48, 2.48, 1.13, -0.61, -1.88, -3.07, -1.86, -1.7, -1.34, -1.34, -1.7, -1.7, -0.89, -0.45, -0.32, -0.6, 0.0, 0.65, 2.21, 3.6, 3.6, 2.21, 1.24, 1.86, 2.4, 2.15, 1.24, 0.0, 0.0, 0.0, 0.63, 0.63, 0.63, 2.79, 2.79, 2.79, 3.07, 2.68, 2.68, 2.8, 2.8, 2.4, 2.4, 2.6, 2.6, 2.6, 2.68, 2.68, 2.68, 2.68, 2.68, 2.68, 2.68, 2.6, 2.6, 2.6, 2.4, 2.4, 2.4, 2.8, 2.5, 2.5, 2.5, 2.5, 2.21, 2.21, 2.53, 2.23, 2.23, 2.23, 2.51, 2.23, 2.23, 1.8, 1.8, 2.22, 2.22, 2.22, 2.44, 2.44, 2.44, 2.44, 2.44, 2.44, 1.76, 1.76, 1.76, 1.76, 1.76, 1.76, 1.58, 1.11, 1.58, 1.58, 1.8, 1.8, 1.8, 2.48, 2.48, 2.48, 1.8, 0.0, -1.2, -2.5, -2.4, -2.24, -1.34, -1.79, -1.79, -1.34, -0.89, -0.89, -0.63, 0.0, 0.0, 1.0, 2.23, 3.6, 4.3, 3.6, 2.53, 2.5, 2.68, 2.68, 1.9, 0.71, 0.71, 1.24, 1.7, 1.7, 1.7, 2.79, 2.79, 2.79, 3.07, 2.68, 2.68, 2.8, 2.8, 2.4, 2.4, 2.6, 2.6, 2.6, 2.68, 2.68, 2.68, 2.68, 2.68, 2.68, 2.68, 2.6, 2.6, 2.6, 2.4, 2.4, 2.4, 2.8, 2.5, 2.5, 2.5, 2.5, 2.21, 2.21, 2.53, 2.23, 2.23, 2.23, 2.51, 2.23, 2.23, 1.8, 1.8, 2.22, 2.22, 2.22, 2.44, 2.44, 2.44, 2.44, 2.44, 2.44, 1.76, 1.76, 1.76, 1.76, 1.76, 1.76, 1.58, 1.11, 1.58, 1.58, 1.8, 1.8, 1.8, 2.48, 2.48, 2.48, 1.8, 0.0, -1.2, -2.5, -2.4, -2.24, -1.34, -1.79, -1.79, -1.34, -0.89, -0.89, -0.63, 0.0, 0.0, 1.16, 2.51, 3.72, 4.11, 4.3, 4.3, 3.82, 3.87, 3.98, 3.97, 3.07, 2.4, 2.4, 2.63, 2.63, 2.63]}, {"header": {"dx": 0.06612293990616946, "dy": 0.0552356325346848, "nx": 98, "ny": 59, "la1": 35.046912555036876, "la2": 31.78801023549047, "lo1": -121.43107172385933, "lo2": -114.95102361305473, "refTime": "2026042013", "parameterCategory": 1, "parameterNumber": 3}, "data": [5.33, 4.89, 4.89, 4.44, 4.3, 3.88, 3.48, 3.48, 3.16, 2.84, 2.86, 2.86, 1.88, 1.61, 1.61, 1.61, 2.5, 2.5, 3.2, 3.74, 3.97, 4.47, 4.44, 3.58, 2.68, 1.79, 1.34, 2.63, 3.82, 3.07, 1.26, -0.0, 0.0, 0.0, 0.6, 0.57, 0.54, 0.57, 1.26, 2.6, 2.68, 2.24, 1.2, 0.0, 0.0, -1.23, -1.3, -1.3, 0.0, 0.63, 2.2, 3.43, 3.72, 2.98, 2.73, 2.48, 2.48, 2.0, 2.07, 1.4, 0.57, 0.0, -0.89, -1.2, -1.9, -1.84, -2.2, -2.12, -1.58, -0.78, -0.77, 0.0, 0.0, 0.66, 1.55, 3.0, 2.82, 1.36, 0.0, 0.0, 1.61, 2.68, 1.9, 1.24, 1.2, 0.89, 1.7, 1.7, 0.57, -0.61, -2.48, -3.79, -3.43, -2.84, -1.88, -1.2, -1.24, -0.6, 5.33, 4.89, 4.89, 4.47, 4.44, 3.7, 3.43, 3.16, 3.43, 3.43, 3.16, 2.5, 2.5, 2.15, 1.58, 1.9, 2.21, 2.21, 3.2, 3.6, 3.74, 4.41, 4.92, 5.73, 4.43, 2.68, 0.89, 1.2, 3.39, 4.11, 2.68, 0.6, -0.0, 0.0, 0.0, 0.0, 0.0, 0.0, 0.8, 1.7, 2.24, 1.6, 0.0, -0.61, -1.8, -1.76, -0.63, 0.0, 1.23, 2.2, 2.98, 2.66, 2.88, 2.11, 2.0, 2.07, 2.79, 2.98, 2.88, 2.11, 1.33, 0.0, 0.0, -0.63, -0.57, -1.2, -0.7, -0.7, -0.74, 0.0, 0.0, 0.0, 0.0, 0.0, 0.66, 0.7, 1.58, 1.36, 0.0, 0.0, 1.61, 2.68, 1.9, 1.24, 1.2, 0.89, 1.7, 1.7, 0.57, -0.61, -2.48, -3.79, -3.43, -2.84, -1.88, -1.2, -1.24, -0.6, 5.36, 4.92, 4.92, 4.47, 4.47, 3.98, 3.6, 3.09, 3.16, 2.86, 2.86, 3.78, 2.68, 2.91, 2.4, 2.5, 2.21, 2.21, 3.07, 3.32, 3.6, 3.74, 3.97, 4.47, 5.73, 4.3, 2.6, 1.34, 3.07, 4.73, 4.3, 2.91, 1.34, 0.89, 0.0, 0.0, 0.0, 0.0, 0.0, 0.95, 1.2, 0.0, 0.0, -0.57, -1.23, -0.63, 0.0, 0.57, 1.41, 1.94, 1.94, 1.47, 1.47, 1.23, 1.13, 1.88, 1.84, 2.0, 2.29, 2.11, 1.47, 0.7, 0.0, 0.0, 0.0, 0.0, 0.61, 0.7, 0.72, 0.79, 1.52, 0.77, 0.0, -1.6, -1.13, -1.55, -0.76, 0.76, 0.0, 0.0, 0.0, 0.89, 1.2, 0.61, 0.54, 0.89, 1.7, 1.24, 0.0, -1.23, -3.79, -5.37, -5.09, -4.09, -3.14, -1.88, -1.24, -0.6, 5.36, 4.92, 4.92, 4.47, 4.47, 4.02, 3.98, 3.2, 3.14, 2.86, 3.15, 2.86, 2.21, 2.68, 2.91, 2.4, 2.5, 2.5, 3.07, 3.6, 4.11, 3.74, 3.32, 3.82, 4.47, 5.36, 4.77, 3.82, 3.53, 4.43, 4.11, 3.87, 3.53, 3.51, 2.86, 1.4, 0.65, 0.0, 0.0, 0.0, 0.57, 1.0, 1.13, 0.57, 0.0, 0.0, 0.0, 0.0, 0.66, 0.63, 0.63, 0.0, 0.0, 0.59, 1.16, 1.61, 1.16, 1.27, 1.41, 1.35, 1.35, 0.73, 0.61, 0.57, 1.26, 1.24, 1.33, 2.11, 2.72, 2.6, 2.35, 0.74, -1.58, -3.32, -3.78, -4.81, -5.21, -4.58, -1.45, -1.13, -1.34, -0.0, -0.0, -0.0, -0.0, -0.0, 0.0, 0.0, -1.27, -3.69, -4.37, -5.06, -5.72, -4.73, -3.14, -1.61, -0.54, -0.65, 5.36, 4.92, 4.92, 4.47, 4.47, 4.02, 4.02, 3.58, 2.91, 2.79, 2.51, 2.86, 1.88, 2.21, 2.15, 2.0, 2.4, 2.5, 2.79, 3.14, 4.15, 4.41, 4.41, 4.41, 4.73, 4.41, 5.36, 5.09, 5.09, 4.88, 3.97, 3.07, 3.07, 2.68, 2.86, 2.07, 1.49, 0.66, 0.0, 0.0, 2.0, 3.6, 3.78, 3.15, 2.48, 1.33, 0.53, 0.0, 0.0, 0.0, 0.0, 0.0, 0.0, 0.0, 1.16, 1.33, 0.7, 0.59, 1.27, 1.35, 0.63, 0.0, 0.59, 1.2, 1.2, 0.65, 0.53, 0.61, 2.0, 3.69, 3.8, 3.15, 0.63, -1.2, -3.32, -5.02, -6.08, -6.05, -0.59, -0.89, -2.23, -1.61, -0.59, -0.57, -1.33, -2.4, -2.4, -2.51, -4.56, -5.49, -4.56, -3.72, -4.11, -3.14, -1.86, -0.57, -0.61, -0.59, 5.36, 4.92, 4.92, 4.47, 4.47, 4.02, 4.02, 4.02, 3.58, 3.07, 2.8, 2.79, 1.88, 1.61, 1.9, 1.58, 1.58, 1.9, 1.88, 2.23, 2.84, 3.6, 4.24, 4.41, 4.41, 3.82, 4.02, 3.97, 4.15, 4.15, 3.98, 2.91, 2.15, 1.2, 0.99, 0.61, 0.59, 0.63, 0.0, 0.6, 2.91, 4.02, 4.66, 5.09, 4.75, 4.12, 2.84, 0.65, -0.53, -0.61, 0.0, 0.0, 0.0, 0.0, 0.0, 0.0, 0.0, 0.0, 0.0, 0.57, 0.0, 0.0, 1.16, 1.61, 1.84, 1.33, 0.0, 0.0, 1.24, 2.48, 3.79, 3.55, 3.16, 0.95, -1.2, -2.91, -4.46, -3.79, 0.0, -0.0, -2.51, -3.07, -3.14, -2.84, -4.0, -5.77, -6.22, -6.07, -6.06, -5.72, -3.79, -4.07, -2.84, -0.89, -0.63, -0.99, -1.27, -1.23, 4.92, 4.92, 4.92, 4.47, 4.47, 4.47, 4.02, 4.02, 3.58, 3.13, 3.13, 3.13, 2.17, 2.17, 1.58, 1.9, 1.24, 0.8, 0.6, 1.26, 1.9, 1.88, 2.53, 2.79, 2.8, 2.23, 1.7, 1.34, 1.26, 3.32, 3.97, 4.02, 3.07, 1.79, 0.63, 0.0, 0.0, 0.73, 0.7, 1.7, 1.49, 2.12, 2.6, 3.22, 4.43, 5.72, 7.06, 3.78, 1.2, 0.0, 0.0, 0.0, 0.0, 0.0, 0.0, 0.0, 0.0, -0.54, -0.53, -0.59, 0.0, 0.65, 1.88, 2.23, 2.07, 2.73, 1.2, -1.34, 0.0, 0.59, 0.7, 1.23, 1.6, 1.24, 0.0, -1.24, -2.53, -1.24, 0.0, -0.63, -3.53, -4.92, -6.66, -8.36, -9.81, -10.73, -9.81, -7.28, -5.05, -5.05, -5.31, -4.37, -2.24, -0.0, -1.2, -1.9, -1.8, -1.23, 4.92, 4.92, 4.92, 4.47, 4.47, 4.47, 4.02, 4.02, 3.58, 3.58, 3.58, 3.58, 2.68, 2.68, 2.24, 2.17, 1.49, 0.95, 0.89, 1.79, 2.63, 2.91, 2.5, 1.2, -0.0, -0.0, -0.0, -0.63, 0.0, 2.24, 3.13, 3.13, 2.68, 1.6, 0.0, -0.57, -1.24, 0.0, 1.49, 1.6, -0.0, -0.0, -0.0, 0.63, 1.58, 2.86, 6.07, 8.3, 5.36, 1.9, 0.0, 0.0, 0.0, 0.0, 0.0, 0.0, 0.0, -0.4, -1.24, -1.2, 0.0, 0.0, 0.54, 1.16, 1.49, 2.2, 2.29, -1.2, -2.91, -2.51, -1.23, -1.23, -0.59, -0.54, -0.63, -1.27, -1.2, -0.63, -1.2, -2.99, -4.96, -7.76, -8.02, -9.83, -12.5, -12.52, -9.39, -5.32, -3.82, -3.35, -4.52, -3.98, -1.27, -1.16, -1.79, -2.21, -2.23, -1.8, 4.92, 4.92, 4.92, 4.47, 4.47, 4.47, 4.02, 4.02, 3.58, 3.58, 3.58, 3.09, 2.24, 1.79, 2.12, 1.79, 1.34, 1.34, 1.79, 2.6, 3.51, 3.74, 3.07, 1.84, 0.51, -0.0, -0.8, -0.0, -0.0, 1.6, 0.89, 0.45, 0.0, 0.0, 0.0, -0.71, -1.58, -0.71, 0.71, 0.89, -0.0, -0.8, -0.8, -0.95, -0.0, 0.89, 2.6, 4.6, 6.68, 6.06, 2.6, 0.0, -0.0, -0.0, -0.0, -0.0, -0.0, 0.0, -0.63, -0.57, 0.0, 0.0, 0.0, 0.0, 0.0, 0.0, 1.4, 0.0, -3.49, -4.4, -3.16, -2.73, -2.48, -2.21, -1.34, -1.9, -1.9, -1.7, -1.58, -1.23, -1.52, -6.0, -5.94, -6.85, -8.91, -9.39, -6.67, -3.53, -0.89, -0.63, -2.6, -2.48, -1.76, -1.88, -1.34, -1.61, -1.84, -1.8, 4.92, 4.92, 4.47, 4.47, 4.47, 4.02, 4.02, 4.02, 3.58, 3.58, 3.13, 3.07, 2.6, 1.79, 0.45, 0.45, 0.0, 0.0, 0.89, 1.6, 1.58, 1.58, 1.9, 1.2, 0.65, -0.0, -0.0, 0.6, 0.8, -0.0, -0.63, -0.63, 0.0, 0.0, 0.0, 0.0, -0.71, -0.6, 0.0, 0.0, -1.86, -1.24, -1.24, -1.2, -0.57, -0.0, 0.45, 1.58, 2.84, 4.43, 4.66, 2.68, -0.0, -0.0, -0.57, -0.0, -0.0, -0.0, 0.0, 1.26, 1.9, 2.21, 1.98, 0.0, -1.2, -1.84, -1.45, -1.4, -2.73, -3.82, -3.6, -3.15, -3.43, -2.79, -1.34, -1.9, -2.21, -1.58, -0.89, -0.63, -0.57, -1.9, -3.43, -3.79, -3.38, -2.48, -2.21, -0.6, 0.6, 0.89, -0.57, -2.51, -2.84, -2.15, -0.89, -0.6, -0.71, -1.2, 4.92, 4.92, 4.47, 4.47, 4.47, 4.02, 4.02, 4.02, 3.58, 3.58, 3.13, 2.68, 2.17, 1.6, 0.0, 0.0, -0.63, -0.63, 0.0, 0.89, 0.0, -0.0, -0.0, -0.0, -0.0, -0.0, -0.0, -0.0, -0.0, -0.8, -0.6, -0.63, -0.0, -0.0, -0.0, 0.0, 0.0, 0.0, -1.26, -2.0, -1.86, -1.24, -0.99, -0.8, -0.0, -0.0, 1.34, 2.6, 3.39, 4.43, 6.22, 5.78, 4.47, 3.13, 2.68, 2.68, 2.63, -0.0, 0.45, 3.53, 5.64, 6.36, 4.09, 1.4, 0.0, -1.33, -2.35, -2.26, -1.84, -2.91, -3.32, -3.78, -3.15, -2.53, -1.7, -1.79, -2.17, -0.95, -0.0, -0.6, -1.26, -1.34, -1.86, -2.79, -1.36, 0.0, 0.0, 0.65, 0.67, 0.0, -0.57, -2.24, -2.17, -1.7, -0.89, 0.0, 0.0, 0.0, 4.92, 4.47, 4.47, 4.47, 4.47, 4.02, 4.02, 4.02, 3.58, 3.58, 3.13, 2.68, 2.24, 1.6, -0.0, -0.45, -0.95, 0.0, 0.0, 0.71, 0.57, 0.0, 0.0, 0.0, 0.0, 0.0, 0.0, 0.0, 0.0, -0.0, -0.8, -0.6, -0.0, -0.0, -0.0, -0.0, -0.57, -1.24, -2.53, -2.53, -1.24, -0.0, -0.0, -0.0, 0.63, 2.17, 3.51, 4.41, 4.85, 6.45, 7.01, 8.46, 9.39, 8.94, 8.91, 8.82, 7.76, 2.63, 0.63, 4.02, 8.01, 8.19, 5.69, 3.14, 2.79, 2.5, 3.07, 2.6, 0.89, 0.0, -1.49, -2.53, -2.51, -1.88, -1.2, -1.88, -1.61, -0.8, -0.45, -1.24, -1.84, -2.21, -2.17, -1.88, -0.66, 0.0, 0.0, -0.67, 0.0, 0.0, -1.27, -1.84, -1.0, -0.63, -0.89, -0.45, -0.0, -0.0, 4.47, 4.47, 4.47, 4.47, 4.47, 4.02, 4.02, 3.58, 3.58, 3.58, 3.13, 2.68, 2.24, 1.79, 0.89, 0.0, 0.0, 0.0, 0.0, 0.0, 0.0, 0.0, 0.0, 0.0, 0.0, 0.0, 0.0, 0.0, 0.6, 0.95, -0.57, -0.57, -0.0, -0.0, -0.0, -0.0, -0.61, -1.13, -1.8, -1.8, -0.61, -0.0, 0.8, 1.2, 1.2, 2.23, 3.22, 3.83, 3.83, 3.83, 4.0, 4.27, 4.52, 4.77, 4.47, 4.41, 6.99, 6.91, 2.5, 3.39, 6.22, 7.71, 6.36, 4.88, 6.66, 7.92, 10.05, 10.26, 6.71, 5.32, 3.53, 1.34, 0.0, 0.0, -0.54, -1.6, -1.8, -1.33, -1.2, -1.2, -1.61, -2.23, -3.39, -4.02, -1.2, -1.47, -2.21, -2.76, -2.0, -1.32, -1.3, -1.16, -1.2, -1.2, -1.9, -1.2, -0.0, -0.0, 4.47, 4.47, 4.47, 4.47, 4.02, 4.02, 4.02, 3.58, 3.53, 3.53, 3.13, 2.68, 2.68, 2.24, 1.34, 0.89, 0.0, 0.0, 0.0, 0.0, 0.0, 0.0, 0.0, 0.0, 0.0, 0.0, 0.0, 0.0, 0.0, 0.0, -0.0, -0.71, -0.71, -1.0, -0.54, -0.0, -0.51, -0.59, -0.59, -0.59, -0.0, -0.0, -0.0, -0.0, 0.0, 1.26, 1.61, 1.6, 1.6, 1.4, 1.33, 0.61, -0.0, -0.0, -0.0, 0.0, 0.89, 3.84, 5.15, 4.02, 4.0, 6.26, 8.49, 9.33, 9.11, 9.33, 9.68, 8.84, 8.89, 6.85, 7.92, 5.78, 4.43, 3.53, 2.15, 0.0, -1.88, -1.84, -1.84, -1.24, -1.2, -2.15, -3.98, -6.67, -3.98, -3.16, -3.8, -2.99, -1.88, -1.26, -1.45, -1.13, -1.61, -1.88, -2.23, -1.86, -0.0, -0.0, 4.47, 4.47, 4.47, 4.02, 4.02, 4.02, 4.02, 3.53, 3.53, 3.09, 3.07, 2.63, 2.6, 2.17, 1.7, 1.6, 1.2, 0.95, 0.0, 0.0, 0.0, 0.0, 0.0, 0.0, 0.0, 0.0, 0.0, 0.0, 0.0, -0.57, -0.45, -0.71, -1.0, -1.58, -1.2, -0.0, -0.0, -0.0, -0.0, -0.0, -0.0, -0.0, -0.0, -0.0, -0.0, 1.34, 0.95, 1.0, 0.71, 0.65, -0.0, -0.71, -0.95, -0.45, -0.45, -0.89, -0.89, 0.0, 3.08, 4.6, 2.4, 1.9, 2.8, 2.8, 3.74, 4.98, 4.22, 3.58, 3.07, 4.41, 8.05, 9.81, 8.19, 5.86, 4.09, 2.5, -0.4, -2.4, -2.5, -1.88, -0.99, -1.34, -3.13, -5.78, -5.33, -4.3, -3.15, -2.73, -2.0, -1.35, -1.4, -1.35, -2.5, -2.15, -1.9, -0.89, -0.0, -0.0, 4.44, 4.47, 4.02, 4.02, 4.02, 4.02, 3.54, 3.53, 3.53, 3.09, 3.07, 2.63, 2.6, 2.17, 2.12, 1.7, 1.26, 1.26, 0.8, 0.57, 0.0, 0.0, 0.0, 0.0, 0.0, 0.0, 0.0, 0.0, -0.61, -0.54, -0.95, -0.95, -1.2, -1.0, -0.95, -0.0, -0.0, 0.99, 1.0, 0.85, -0.0, -0.0, -0.0, -0.0, -0.0, 1.34, 1.26, 1.0, 0.6, 0.8, -0.0, -0.6, 0.0, 0.0, 0.0, 0.0, 0.0, -0.89, 0.65, 2.21, 0.89, -0.0, -0.0, -0.0, 0.6, 0.71, 0.57, 2.24, 4.47, 7.15, 8.05, 6.58, 5.2, 4.12, 3.78, 3.16, 1.88, 0.0, -1.26, -1.24, -0.54, -0.57, -1.79, -3.58, -4.02, -1.79, -2.91, -2.53, -2.53, -2.51, -2.04, -2.5, -2.6, -1.88, -1.88, -1.49, -0.89, -0.89, 4.43, 3.98, 4.02, 4.02, 4.02, 4.02, 3.53, 3.53, 3.53, 3.09, 3.07, 2.63, 2.6, 2.17, 2.12, 2.12, 1.86, 1.58, 1.24, 0.71, 0.54, 0.0, 0.0, 0.53, 0.0, 0.0, 0.0, -0.51, -0.61, -1.2, -1.24, -1.34, -1.26, -0.95, -0.6, -0.0, -0.0, 0.8, 0.71, -0.0, -0.0, -0.0, -0.0, 0.6, -0.0, -0.0, 0.95, -0.0, -0.0, 0.89, 0.63, -0.0, 0.0, 0.0, 0.0, 0.0, 0.0, 0.0, 0.0, 0.0, 0.0, 0.0, 0.0, 0.0, 0.0, 0.0, 0.0, 2.6, 5.51, 7.1, 4.85, 4.11, 2.84, 2.23, 2.48, 2.48, 2.86, 2.51, 1.61, 1.2, 1.2, 0.57, -0.63, -2.12, -2.4, -0.57, -0.45, -3.07, -3.39, -3.48, -3.08, -2.21, -3.07, -3.14, -2.84, -2.4, -1.79, -1.79, 3.98, 3.98, 4.02, 4.02, 4.02, 3.54, 3.53, 3.53, 3.09, 3.07, 3.07, 2.63, 2.6, 2.6, 2.17, 2.12, 1.86, 1.58, 1.24, 1.0, 0.54, 0.0, 0.54, 0.65, 0.51, 0.0, 0.0, -0.61, -0.61, -1.2, -1.2, -1.58, -1.79, -1.6, -1.26, -0.63, -0.0, -0.0, -0.0, -0.0, -0.8, -0.71, -0.0, -0.0, -0.0, -0.0, -0.0, -0.0, -0.0, 0.89, 1.34, 1.34, 1.34, 0.0, 0.0, 0.0, 0.0, 1.34, 0.0, 0.0, 0.0, 0.0, 0.0, 1.34, 1.79, 0.45, 0.45, 1.58, 2.53, 2.6, 2.23, 1.84, 1.13, 0.57, 0.66, 1.16, 2.51, 3.15, 3.43, 3.16, 3.14, 2.5, 0.6, -1.0, -0.53, 0.0, -0.6, -2.68, -3.97, -4.0, -3.16, -1.88, -2.91, -4.11, -3.14, -2.4, -2.24, -2.24, 3.98, 3.98, 3.98, 4.02, 3.58, 3.53, 3.53, 3.53, 3.09, 3.07, 3.07, 2.63, 2.6, 2.17, 2.17, 1.2, 1.86, 1.58, 1.24, 1.49, 1.2, 0.54, 0.0, 0.0, 0.0, 0.0, 0.0, 0.0, -0.71, -1.4, -1.2, -1.9, -1.86, -1.79, -1.79, -1.79, -1.34, -0.95, -0.57, -1.24, -1.9, -1.2, -0.71, -0.8, -0.0, -0.0, -0.0, -0.0, -0.0, 0.0, 0.89, 1.34, 1.79, 1.26, 0.95, 0.0, 0.0, 0.0, 0.0, 0.0, 0.0, 0.0, 0.0, 0.89, 0.95, -0.0, 0.0, 0.0, -0.0, -0.45, -0.71, 0.0, 0.0, 0.0, 0.0, -0.61, -0.54, 0.0, 1.27, 2.51, 1.9, 1.24, 0.0, -1.86, -1.9, -1.88, -2.5, -2.91, -3.97, -3.98, -3.39, -2.53, -3.6, -4.73, -3.82, -2.91, -2.68, -2.68, 3.98, 3.98, 3.98, 3.58, 3.58, 3.53, 3.53, 3.09, 3.07, 3.07, 2.63, 2.63, 2.6, 2.17, 2.12, 1.86, 1.49, 1.26, 1.2, 1.26, 0.71, 0.0, 0.0, 0.0, -0.57, 0.0, 0.0, -0.61, -0.65, -1.2, -1.49, -1.9, -1.9, -1.86, -1.86, -1.86, -1.24, -0.6, -0.89, -1.24, -1.61, -1.2, -0.65, -0.53, -0.0, -0.0, -0.0, 0.95, 0.95, 0.89, 0.89, 1.34, 1.26, 1.26, 0.63, 0.89, 1.34, 0.0, 0.0, 0.0, 0.0, 0.0, 0.0, 1.34, 0.63, -0.0, 0.0, 0.0, 0.0, 0.0, 0.0, 0.0, -0.78, -0.79, -1.45, -2.73, -3.72, -3.72, 0.0, 1.2, 1.2, 0.54, 0.0, -0.95, -2.6, -2.91, -2.4, -1.26, -3.53, -3.58, -3.58, -3.2, -4.0, -5.16, -4.88, -4.43, -3.53, -3.53, 3.98, 3.53, 3.53, 3.53, 3.53, 3.53, 3.09, 3.09, 3.07, 3.07, 2.63, 2.6, 2.6, 2.17, 1.86, 1.86, 1.49, 1.26, 1.26, 0.6, 0.0, 0.0, 0.0, -0.54, -0.61, -0.61, 0.0, 0.0, -0.65, -0.71, -1.24, -1.49, -1.9, -1.9, -1.9, -1.9, -1.9, -1.2, -0.57, -0.95, -0.89, -0.89, -0.0, -0.0, -0.0, -0.0, 0.95, 0.95, 0.95, 0.89, 0.89, 1.34, 0.95, -0.0, -0.0, 0.45, 0.89, 0.89, 0.0, 0.0, -0.0, -0.0, 1.58, -0.0, -0.0, -0.0, -0.0, 0.0, 0.57, 2.07, 3.6, 2.31, 0.74, -0.74, -3.16, -5.49, -8.25, -5.86, -3.39, -0.57, 0.54, 0.54, 1.24, 0.4, -0.63, -1.2, -0.63, 0.0, 0.0, -2.4, -3.53, -3.39, -4.0, -4.88, -6.71, -5.36, -4.02, -4.02, 3.53, 3.53, 3.53, 3.53, 3.53, 3.53, 3.09, 3.07, 3.07, 2.63, 2.63, 2.6, 2.6, 2.0, 1.86, 1.86, 1.49, 1.26, 0.57, 0.71, 0.54, 0.0, 0.0, 0.0, 0.0, 0.0, 0.0, 0.0, 0.0, -0.65, -0.54, -1.24, -1.49, -1.9, -1.9, -1.9, -1.9, -1.61, -1.2, -1.2, -1.0, -0.71, -0.57, 0.0, 0.0, 0.89, 0.45, 0.89, 0.63, 0.0, 0.0, 0.0, -0.0, -0.0, 0.0, 0.0, 1.2, 1.24, 1.0, 1.2, 0.71, 0.54, 0.57, -0.0, -0.0, -0.0, -0.0, -0.0, 0.45, 2.23, 3.58, 4.24, 4.47, 1.2, -4.66, -8.25, -9.68, -8.97, -5.2, -2.63, 0.0, 0.95, 1.86, 2.17, 1.2, 0.63, 0.63, 0.63, 0.63, -1.2, -2.79, -2.5, -2.91, -3.98, -4.88, -4.73, -3.6, -3.6, 3.53, 3.53, 3.53, 3.53, 3.53, 3.09, 3.09, 3.07, 3.07, 2.63, 2.63, 2.6, 2.4, 2.0, 1.86, 1.86, 1.86, 1.26, 0.99, 0.71, 0.54, 0.54, 0.0, 0.0, 0.0, 0.0, 0.0, 0.0, 0.0, -0.53, -0.65, -0.65, -1.2, -1.2, -1.61, -1.61, -1.61, -1.88, -1.88, -1.16, -1.16, -1.16, -0.61, 0.0, 0.0, 0.71, 0.63, 0.45, 0.0, -0.0, 0.0, 0.0, -0.0, -0.0, -0.0, 0.0, 0.99, 1.2, 1.24, 1.26, 0.71, -0.0, -0.0, -0.0, 0.6, 0.6, 0.63, -0.0, 0.0, 0.0, 3.04, 4.66, 2.91, 0.0, -2.68, -5.78, -7.76, -8.06, -6.42, -3.98, -1.34, 0.0, 1.34, 1.79, 1.7, 1.7, 1.2, 0.45, 0.0, 0.89, -0.6, 0.0, 0.0, -2.17, -3.6, -3.72, -3.14, -3.14, 3.53, 3.53, 3.53, 3.53, 3.09, 3.09, 3.07, 3.07, 3.07, 2.63, 2.6, 2.6, 2.4, 2.0, 1.86, 1.86, 1.86, 1.26, 0.99, 0.71, 0.71, 0.54, 0.0, 0.0, 0.0, 0.0, 0.0, 0.0, -0.61, -0.61, -0.53, -0.53, -0.65, -1.2, -1.2, -1.2, -1.61, -1.61, -1.88, -1.88, -1.16, -1.16, -0.61, -0.61, 0.0, 0.0, 0.0, 0.0, 0.0, 0.0, 0.0, -0.0, -0.0, -0.0, -0.0, 0.0, 0.6, 0.71, 0.57, 0.95, 0.63, -0.6, -1.2, -0.0, 0.6, 1.26, 0.63, 0.0, 0.0, 0.0, 1.2, 0.6, 1.35, 0.57, 0.0, -2.24, -4.98, -6.4, -6.0, -3.82, -2.24, -0.63, -0.0, 0.45, 0.0, 0.45, 0.0, 0.0, 0.0, 1.34, 0.95, 1.61, 1.88, -0.0, -2.23, -3.14, -2.79, -2.79, 3.53, 3.53, 3.09, 3.09, 3.09, 3.09, 3.07, 3.07, 2.63, 2.63, 2.6, 2.6, 2.4, 1.86, 1.86, 1.86, 1.86, 1.58, 0.99, 0.71, 0.71, 0.54, 0.0, 0.0, 0.0, 0.0, 0.0, 0.0, -0.53, -0.53, -0.61, -0.61, -0.61, -1.16, -1.16, -1.4, -1.2, -1.2, -1.2, -1.4, -1.4, -1.16, -1.16, -0.61, 0.0, 0.0, 0.0, 0.0, 0.0, 0.0, -0.89, 0.0, -0.0, -0.0, -0.0, -0.0, 0.45, 0.63, -0.0, -0.0, 0.0, -1.2, -1.34, -0.0, 0.95, 0.95, 1.2, 1.34, 0.89, 0.45, -1.34, -1.58, 0.0, 2.23, 2.2, 1.16, -1.58, -3.45, -4.29, -2.79, -2.4, -0.89, 0.6, -0.0, -0.0, -0.0, 0.0, 0.0, 0.89, 1.7, 1.6, 2.21, 2.23, 0.61, -1.16, -2.53, -2.21, -2.21, 3.09, 3.09, 3.09, 3.09, 3.09, 3.07, 3.07, 3.07, 2.63, 2.6, 2.6, 2.4, 2.4, 1.86, 1.86, 1.86, 1.86, 1.58, 1.24, 1.24, 0.71, 0.71, 0.54, 0.0, 0.0, 0.0, 0.0, 0.0, -0.53, -0.53, -0.53, -0.61, -1.16, -1.16, -1.16, -1.16, -1.16, -1.4, -1.2, -1.2, -1.2, -1.2, -1.2, -0.65, -0.65, 0.0, 0.0, 0.0, 0.0, 0.0, -0.89, -0.89, -0.0, -0.0, -0.0, -0.0, 0.0, 0.0, 0.0, -1.2, -1.79, -1.6, -0.95, 0.0, 0.63, 1.2, 1.2, 1.2, 0.63, 0.0, -1.79, -2.12, -0.59, 1.36, 4.5, 5.06, 1.58, -2.91, -3.49, -2.51, -2.53, -0.63, 1.61, 1.16, -0.0, -0.0, 0.0, 0.45, 2.17, 2.4, 1.7, 1.26, 2.15, 1.9, -0.0, -0.6, -1.26, -1.26, 3.09, 3.09, 3.07, 3.07, 3.07, 3.07, 3.07, 3.07, 2.63, 2.6, 2.6, 2.4, 2.0, 1.86, 1.86, 1.86, 1.86, 1.58, 1.24, 1.24, 0.71, 0.71, 0.54, 0.0, 0.0, 0.0, 0.0, 0.0, -0.65, -0.65, -0.65, -1.2, -1.16, -1.16, -1.16, -1.16, -1.16, -1.16, -1.16, -1.4, -1.2, -1.2, -0.65, -0.65, -0.54, -0.71, -0.57, 0.0, 0.0, -0.95, -0.63, -0.63, -0.89, -0.0, -0.0, -0.0, -0.0, 0.0, 0.0, -0.89, -2.12, -2.24, -1.26, -0.6, 0.0, 0.63, 0.63, 0.0, -0.0, -1.2, -2.24, -2.63, -1.88, 0.0, 2.88, 5.31, 3.53, -0.89, -3.07, -3.16, -2.23, -0.45, 1.8, 1.58, 0.61, -0.0, -0.0, 1.6, 2.91, 2.49, 1.7, 0.89, 1.2, 1.2, 0.63, 0.0, -0.6, -0.6, 3.07, 3.07, 3.07, 3.07, 3.07, 3.07, 3.07, 3.07, 2.63, 2.6, 2.6, 2.4, 2.0, 1.86, 1.86, 1.86, 1.86, 1.58, 1.24, 1.24, 0.71, 0.71, 0.54, 0.0, 0.0, 0.0, 0.0, 0.0, -0.53, -0.65, -0.65, -1.2, -1.2, -1.16, -1.16, -1.16, -1.16, -1.61, -1.61, -1.4, -1.2, -1.2, -1.2, -0.54, -0.54, -0.71, -0.71, -0.8, -0.8, -0.6, -0.95, -0.95, 0.0, 0.0, -0.0, -0.0, -0.0, -0.0, -0.0, -0.0, -1.6, -2.24, -1.7, -1.2, 0.0, -0.0, -0.0, -0.89, -0.89, -1.2, -1.79, -2.63, -3.6, -3.07, 0.0, 2.68, 2.91, 0.89, -1.7, -2.51, -1.84, -2.23, 1.8, 2.0, 0.59, -0.0, -0.0, 1.88, 2.5, 2.12, 0.8, 0.0, 0.45, 0.89, 0.45, 0.0, -0.71, -0.71, 3.07, 3.07, 3.07, 3.07, 3.07, 3.07, 3.07, 3.07, 2.63, 2.63, 2.6, 2.4, 2.0, 1.86, 1.86, 1.86, 1.86, 1.24, 1.24, 1.24, 0.71, 0.71, 0.54, 0.0, 0.0, 0.0, 0.0, 0.0, -0.53, -0.53, -0.65, -1.2, -1.2, -1.4, -1.16, -1.16, -1.61, -1.61, -1.61, -1.88, -1.4, -1.2, -1.2, -0.8, -0.6, -0.54, -0.71, -1.24, -1.58, -0.8, -0.6, -0.95, 0.0, 0.0, 0.0, -0.71, -0.8, -0.8, -0.57, -0.6, -0.95, -1.34, -1.34, -1.34, -0.0, 1.2, 0.0, -0.45, -0.63, -1.2, -1.34, -1.9, -2.51, -4.52, -4.3, -2.15, 0.0, 0.57, 0.0, -1.58, -1.88, -3.72, -0.0, 3.42, 1.88, 1.19, 1.3, 1.23, 1.0, 0.6, -0.0, 0.0, 0.0, 0.45, 0.45, 0.0, 0.0, 0.0, 3.07, 3.07, 3.07, 3.07, 3.07, 3.07, 3.07, 3.07, 2.63, 2.6, 2.6, 2.4, 1.86, 1.86, 1.86, 1.86, 1.86, 1.24, 1.24, 1.24, 0.71, 0.71, 0.54, 0.0, 0.0, 0.0, 0.0, 0.0, 0.0, -0.53, -0.65, -1.2, -1.2, -1.2, -1.16, -1.16, -1.61, -1.61, -1.61, -1.88, -1.88, -1.2, -1.2, -1.49, -1.24, -0.6, -0.57, -1.49, -1.86, -1.26, -1.26, -0.95, -0.6, 0.0, -0.89, -0.8, -1.2, -1.61, -1.24, -0.8, -0.63, -0.89, -1.34, -1.58, -0.0, 1.2, 1.2, 0.63, -0.0, -0.63, -1.79, -1.24, 0.0, -1.41, -6.01, -6.44, -3.48, -1.84, -0.71, -1.26, -1.9, -4.93, -3.13, 1.65, 4.12, 2.9, 2.06, 0.67, 0.57, 0.53, 0.54, -0.0, -0.0, 0.0, 0.63, 0.6, 1.24, 1.24, 2.91, 2.91, 2.91, 2.91, 3.07, 3.07, 3.07, 3.07, 2.63, 2.6, 2.6, 2.4, 1.86, 1.86, 1.86, 1.86, 1.24, 1.24, 1.24, 1.24, 0.71, 0.71, 0.54, 0.0, 0.0, 0.0, 0.0, 0.0, 0.0, -0.53, -0.53, -0.65, -1.2, -1.2, -1.4, -1.16, -1.61, -1.61, -1.61, -1.88, -1.88, -1.88, -1.61, -1.9, -1.9, -1.26, -1.58, -1.9, -1.86, -1.6, -1.6, -1.6, -0.95, -0.6, -0.95, -1.2, -1.49, -1.61, -1.88, -1.26, -1.2, -1.6, -1.24, -0.54, -0.0, 0.95, 0.95, 0.63, 0.45, 0.0, -2.24, -1.79, 0.0, 2.04, 0.0, -3.6, -5.94, -4.11, -2.51, -1.9, -2.6, -3.39, -4.43, -0.59, 1.69, 2.9, 3.61, 1.98, 1.35, 1.11, 1.27, 1.16, 0.54, 0.6, 0.89, 1.49, 2.5, 2.5, 2.91, 2.91, 2.91, 2.91, 2.91, 2.91, 3.07, 3.07, 2.63, 2.4, 2.4, 2.4, 2.4, 1.86, 1.86, 1.58, 1.24, 1.24, 1.24, 1.24, 0.71, 0.71, 0.54, 0.0, 0.0, 0.0, 0.0, 0.0, 0.0, -0.53, -0.53, -0.65, -0.65, -1.2, -1.2, -1.4, -1.61, -1.61, -1.61, -1.88, -1.88, -1.88, -1.88, -1.88, -1.61, -2.5, -2.5, -1.9, -1.86, -1.7, -1.6, -1.6, -1.6, -0.6, -0.8, -1.34, -1.26, -1.24, -1.24, -1.2, -1.24, -1.61, -0.65, -0.0, 0.99, 1.2, 0.89, 0.0, 0.0, -0.8, -1.86, -1.34, -0.89, 1.4, 1.94, 0.0, -2.51, -3.14, -2.53, -1.61, -1.86, -1.49, -1.58, -1.24, -0.0, 0.61, 2.89, 4.69, 2.11, 1.94, 1.76, 1.8, 1.16, 1.2, 1.34, 2.24, 3.07, 3.07, 3.32, 3.32, 2.91, 2.91, 2.91, 2.91, 2.91, 2.91, 2.49, 2.4, 2.4, 2.4, 2.4, 1.86, 1.86, 1.58, 1.24, 1.24, 1.24, 0.71, 0.71, 0.71, 0.54, 0.0, 0.0, 0.0, 0.0, 0.0, -0.65, 0.0, -0.65, -0.65, -0.65, -1.2, -1.2, -1.4, -1.61, -1.61, -1.61, -1.88, -1.88, -1.88, -1.88, -1.88, -1.88, -1.88, -1.9, -1.9, -1.86, -1.86, -1.6, -1.6, -1.6, -1.26, -0.8, -1.26, -1.34, -0.57, -0.53, -1.13, -2.44, -1.2, -0.0, 0.71, 0.99, 0.95, 0.89, 0.0, -0.89, -1.2, -0.63, 0.0, -1.34, -1.9, 0.0, 0.0, -1.2, -0.45, 0.0, 0.59, 0.63, 0.0, 0.0, 0.0, 0.0, 0.0, 1.79, 4.74, 3.64, 2.73, 2.2, 1.76, 1.27, 1.84, 1.88, 2.6, 3.13, 3.13, 3.39, 3.39, 3.32, 2.91, 2.91, 2.91, 2.91, 2.91, 2.49, 2.4, 2.4, 2.4, 2.23, 1.86, 1.58, 1.24, 1.24, 1.24, 1.24, 0.71, 0.71, 0.71, 0.0, 0.0, 0.0, 0.0, 0.0, 0.0, -0.65, -0.65, -0.65, -0.65, -1.2, -1.2, -1.2, -1.4, -1.4, -1.61, -1.61, -1.88, -1.88, -1.88, -1.88, -1.88, -1.88, -1.88, -1.61, -1.9, -1.9, -1.86, -1.86, -1.26, -1.26, -1.26, -1.26, -1.26, -1.2, -1.6, -0.59, -1.23, -1.98, -0.0, -0.0, -0.0, -0.0, -0.0, -0.0, -0.0, 0.0, -0.89, -0.0, 0.0, -1.2, -3.72, -3.69, -1.45, 0.0, 1.88, 2.23, 2.6, 1.4, 0.67, 0.0, 0.0, 0.0, 0.0, 1.16, 3.82, 2.86, 2.66, 2.44, 1.94, 1.76, 1.27, 1.13, 2.68, 3.39, 3.39, 3.39, 3.39, 3.32, 3.32, 2.91, 2.91, 2.91, 2.91, 2.4, 2.4, 2.4, 2.4, 1.86, 1.86, 1.58, 1.24, 1.24, 1.24, 0.71, 0.71, 0.71, 0.71, 0.0, 0.0, 0.0, 0.0, 0.0, 0.0, 0.0, -0.65, -0.65, -1.2, -1.2, -1.2, -1.2, -1.2, -1.4, -1.88, -1.61, -1.88, -1.88, -1.88, -1.88, -1.88, -1.88, -1.88, -1.88, -1.61, -1.9, -1.9, -1.58, -1.86, -1.86, -1.58, -1.26, -1.26, -1.26, -1.34, -1.9, -1.33, -1.33, -0.0, -0.0, -0.0, -0.0, -0.0, -0.0, -0.0, -0.0, -0.6, -0.6, -0.45, -0.71, -3.79, -4.6, -2.21, 0.72, 3.78, 4.6, 3.11, 0.65, 0.0, -0.64, 0.0, 0.0, 1.65, 2.86, 2.68, 2.68, 2.84, 2.86, 2.73, 2.0, 1.41, 1.27, 1.8, 3.07, 3.07, 3.2, 3.2, 3.07, 3.07, 2.68, 2.91, 2.91, 2.91, 2.4, 2.4, 2.4, 2.4, 1.86, 1.86, 1.58, 1.24, 1.24, 1.24, 0.71, 0.71, 0.71, 0.71, 0.0, 0.0, 0.0, 0.0, 0.0, 0.0, 0.0, -0.65, -0.65, -0.65, -1.2, -1.2, -1.2, -1.2, -1.4, -1.88, -1.88, -1.88, -1.88, -1.88, -1.88, -1.88, -1.88, -1.88, -1.88, -1.88, -1.88, -1.61, -1.9, -1.9, -1.86, -1.86, -1.86, -1.86, -1.58, -1.26, -1.79, -1.9, -0.61, -0.0, -0.0, -0.0, -0.0, -0.0, -0.0, -0.0, -0.0, -0.0, -0.0, -0.32, 0.0, 0.0, 0.0, -0.77, 0.0, 2.39, 2.95, 2.06, 0.67, 0.0, 0.0, 0.0, 1.86, 2.91, 3.82, 3.82, 3.09, 2.63, 3.07, 2.84, 2.07, 2.07, 1.8, 1.8, 2.23, 2.23, 3.2, 3.2, 3.07, 3.07, 2.68, 2.68, 2.68, 2.68, 2.8, 2.4, 2.4, 2.23, 1.86, 1.58, 1.58, 1.24, 1.24, 1.24, 0.71, 0.71, 0.71, 0.0, 0.0, 0.0, 0.0, 0.0, 0.0, 0.0, -0.65, -0.65, -0.65, -0.65, -1.2, -1.2, -1.2, -1.2, -1.61, -1.88, -1.88, -1.88, -1.88, -1.88, -1.88, -1.24, -1.88, -1.88, -1.88, -1.88, -1.88, -1.88, -1.9, -1.9, -1.9, -1.9, -1.9, -1.58, -1.86, -1.58, -1.86, -1.79, -1.2, -0.59, -0.0, -0.53, -0.0, -0.0, 0.71, 0.57, 0.6, -0.0, -0.0, -0.0, 1.2, 2.99, 3.06, 0.69, -0.63, -1.47, -1.49, -0.69, 0.0, 0.0, 0.45, 1.7, 3.13, 3.98, 4.6, 4.66, 4.27, 3.39, 2.63, 2.5, 2.53, 1.84, 2.07, 1.8, 1.8, 2.23, 3.07, 3.07, 3.07, 3.07, 2.68, 2.68, 2.68, 2.5, 2.5, 2.15, 2.4, 1.9, 1.58, 1.58, 1.24, 1.24, 1.24, 0.71, 0.71, 0.71, 0.71, 0.0, 0.0, 0.0, 0.0, 0.0, 0.0, 0.0, -0.65, -0.65, -0.65, -0.65, -1.2, -1.2, -1.2, -1.61, -1.61, -1.88, -1.88, -1.88, -1.88, -1.88, -2.21, -1.24, -1.88, -1.84, -2.23, -2.53, -2.21, -1.88, -1.88, -1.9, -1.9, -1.9, -1.9, -1.9, -1.9, -1.9, -1.9, -1.9, -1.79, -1.2, -0.0, -0.0, -0.0, -0.0, -0.0, -0.0, -0.0, -0.0, -0.0, -0.0, 0.89, 2.23, 3.55, 3.47, 0.57, -2.48, -4.67, -4.02, -2.23, -0.89, -0.0, 2.17, 3.98, 4.47, 4.6, 4.66, 4.93, 4.43, 3.07, 1.9, 1.61, 1.33, 1.49, 1.8, 2.0, 1.8, 3.07, 3.07, 3.07, 3.07, 3.07, 2.68, 2.68, 2.5, 2.5, 2.15, 1.9, 1.9, 1.58, 1.58, 1.24, 1.24, 1.24, 0.71, 0.71, 0.71, 0.71, 0.0, 0.0, 0.0, 0.0, 0.0, 0.0, -0.54, -0.65, -0.65, -0.65, -1.2, -1.2, -1.2, -1.2, -1.61, -1.61, -1.88, -1.88, -1.88, -1.88, -2.21, -2.21, -2.21, -1.58, -2.23, -2.23, -2.53, -2.21, -2.21, -2.5, -1.9, -1.9, -1.9, -1.9, -1.9, -2.15, -1.9, -1.9, -1.88, -1.9, -1.79, -0.65, -0.0, -0.0, -0.0, -0.0, -0.57, -0.0, -0.0, 0.0, 0.0, 0.0, 0.0, 2.07, 4.36, 3.16, 0.0, -3.16, -5.01, -3.88, -2.24, -0.63, 1.7, 3.98, 4.02, 3.98, 4.3, 4.43, 4.47, 3.07, 1.16, 1.13, 1.33, 1.27, 1.41, 1.23, 2.0, 3.07, 3.07, 3.07, 3.07, 3.07, 2.68, 2.5, 2.5, 2.5, 2.15, 1.9, 1.9, 1.58, 1.58, 1.24, 1.24, 1.24, 0.71, 0.71, 0.71, 0.0, 0.0, 0.0, 0.0, 0.0, 0.0, 0.0, -0.54, -0.65, -0.65, -0.65, -1.2, -1.2, -1.2, -1.2, -1.61, -1.61, -1.88, -1.88, -2.21, -2.21, -2.53, -2.53, -2.53, -2.79, -1.9, -3.14, -2.53, -2.5, -2.5, -2.5, -2.5, -2.5, -2.5, -2.5, -2.5, -2.5, -2.5, -2.15, -1.88, -1.88, -2.23, -0.63, -0.0, -0.0, -0.0, -0.57, -0.0, -0.0, -0.0, 0.0, 0.0, -0.89, 0.0, 0.95, 2.5, 3.07, 1.7, -0.95, -3.39, -3.39, -1.49, 0.0, 1.34, 3.09, 3.53, 3.58, 3.58, 3.97, 3.6, 2.51, 1.27, 1.27, 1.49, 1.41, 1.41, 1.23, 1.23, 2.79, 2.79, 2.79, 3.07, 3.07, 2.5, 2.5, 2.5, 2.5, 2.15, 1.9, 1.9, 1.58, 1.24, 1.24, 1.24, 1.24, 0.71, 0.71, 0.0, 0.0, 0.0, 0.0, 0.0, 0.0, 0.0, -0.54, -0.54, -0.65, -0.65, -1.2, -1.2, -1.2, -1.2, -1.2, -1.61, -1.61, -1.88, -1.88, -2.21, -2.21, -2.53, -2.53, -2.53, -2.79, -3.14, -2.79, -2.5, -2.5, -2.5, -2.5, -2.5, -2.5, -2.5, -2.5, -2.5, -2.5, -2.5, -2.5, -2.5, -2.21, -2.5, -1.79, -0.0, -0.0, -0.0, -0.0, -0.0, -0.0, -0.0, -0.0, -0.45, -0.89, -1.34, -0.89, 0.0, 0.65, 0.61, 0.59, 0.0, 0.53, 1.76, 3.4, 1.33, 2.17, 3.32, 3.32, 3.32, 3.07, 2.84, 2.51, 1.8, 1.27, 1.27, 1.41, 0.73, 0.73, 0.73, 2.79, 2.79, 2.79, 2.79, 2.79, 2.5, 2.5, 2.5, 2.5, 1.9, 1.9, 1.9, 1.9, 1.24, 1.24, 1.24, 0.71, 0.71, 0.57, 0.0, 0.0, 0.0, 0.0, 0.0, 0.0, 0.0, -0.54, -0.54, -0.65, -1.2, -1.2, -1.2, -1.2, -1.2, -1.61, -1.61, -1.61, -1.88, -2.21, -2.21, -2.53, -2.53, -2.53, -2.53, -2.53, -2.53, -2.53, -2.5, -2.5, -2.5, -2.5, -2.5, -2.5, -2.5, -2.5, -2.5, -2.5, -2.5, -2.5, -2.5, -2.21, -2.53, -2.6, -0.95, -0.0, -0.0, -0.0, -0.0, -0.0, -0.0, -0.0, -0.45, -1.34, -1.34, -1.7, -1.86, -0.59, 0.0, 1.44, 4.5, 7.08, 8.38, 7.6, 2.48, 1.86, 2.79, 3.07, 3.07, 2.21, 1.88, 1.84, 2.07, 1.8, 0.66, 0.73, 0.73, 0.73, 0.73, 2.79, 2.79, 2.79, 2.79, 2.21, 2.21, 2.21, 2.21, 2.5, 1.9, 1.9, 1.9, 1.9, 1.24, 1.24, 1.24, 0.71, 0.71, 0.57, 0.0, 0.0, 0.0, 0.0, 0.0, 0.0, 0.0, -0.54, -0.54, -0.65, -1.2, -1.2, -1.2, -1.2, -1.61, -1.61, -1.9, -1.88, -2.21, -2.21, -2.21, -2.53, -2.53, -2.79, -2.79, -2.53, -2.53, -2.53, -2.5, -2.5, -2.5, -2.5, -2.5, -2.5, -2.5, -2.5, -2.5, -2.5, -2.5, -2.5, -2.5, -2.53, -2.53, -2.8, -2.12, -0.0, -0.0, -0.0, -0.0, -0.0, -0.0, 0.0, -0.89, -1.34, -1.7, -1.26, -0.57, -0.61, 0.0, 1.52, 6.2, 10.04, 10.35, 7.69, 3.32, 1.9, 2.23, 2.53, 2.21, 1.61, 1.24, 1.27, 1.84, 1.33, 0.66, 0.66, 0.66, 0.66, 0.66, 2.79, 2.79, 2.79, 2.79, 2.21, 2.21, 2.21, 2.21, 1.88, 1.9, 1.9, 1.9, 1.49, 1.24, 1.24, 0.71, 0.71, 0.71, 0.57, 0.0, 0.0, 0.0, 0.0, 0.0, 0.0, -0.54, -0.54, -0.65, -0.65, -1.2, -1.2, -1.2, -1.61, -1.61, -1.61, -1.9, -2.5, -2.21, -2.21, -2.21, -2.53, -2.79, -2.79, -2.79, -2.79, -2.79, -2.53, -2.53, -2.5, -2.5, -2.5, -2.5, -2.5, -2.5, -2.5, -2.5, -2.5, -2.5, -2.5, -2.5, -2.53, -2.53, -2.5, -2.24, -1.24, -0.0, -0.0, -0.0, -0.0, -0.0, -1.34, -1.34, -1.34, -0.8, 0.0, 0.0, 0.0, 0.0, 1.52, 5.59, 8.6, 8.56, 6.09, 4.8, 2.24, 1.16, 1.16, 1.61, 1.2, 1.0, 1.13, 1.88, 1.33, 0.7, 0.66, 0.66, 0.66, 0.66, 2.79, 2.79, 2.79, 2.53, 2.21, 2.21, 2.21, 1.88, 1.88, 1.61, 1.9, 1.9, 1.49, 1.24, 1.24, 0.71, 0.71, 0.71, 0.0, 0.0, 0.0, 0.0, 0.0, 0.0, 0.0, -0.54, -0.54, -0.65, -1.2, -1.2, -1.2, -1.2, -1.61, -1.61, -1.61, -2.21, -2.5, -2.5, -2.21, -2.21, -2.79, -2.79, -2.79, -2.79, -2.79, -2.79, -2.79, -2.79, -3.07, -3.07, -2.68, -2.5, -2.5, -2.5, -2.5, -2.5, -2.5, -2.5, -2.5, -2.5, -2.21, -2.53, -2.53, -2.4, -2.12, -0.0, -0.0, -0.0, -0.0, -1.6, -1.34, -1.34, -0.63, -0.63, -0.0, 0.0, 0.0, 0.53, 2.51, 4.09, 5.43, 5.41, 5.38, 6.36, 3.07, -0.0, -0.0, 1.16, 1.16, 1.24, 1.24, 1.2, 1.16, 1.33, 0.59, 0.59, 0.59, 0.59, 2.79, 2.79, 2.79, 2.21, 2.21, 2.21, 2.21, 1.88, 1.88, 1.61, 1.61, 1.49, 1.24, 1.24, 1.24, 0.71, 0.71, 0.57, 0.0, 0.0, 0.0, 0.0, 0.0, 0.0, -0.54, -0.54, -0.54, -0.65, -1.2, -1.2, -1.2, -1.61, -1.61, -1.61, -2.21, -2.5, -2.5, -2.5, -2.5, -2.53, -2.79, -2.79, -2.79, -2.79, -2.79, -2.79, -2.79, -2.79, -2.79, -3.07, -3.07, -2.68, -2.68, -2.68, -2.5, -2.5, -2.5, -2.5, -2.5, -2.5, -2.5, -2.21, -2.53, -2.5, -2.24, -0.0, 1.2, 1.2, -0.0, -0.57, -0.8, -1.26, -0.6, -0.6, -0.0, -0.0, 0.0, 1.26, 3.07, 4.0, 3.16, 4.46, 6.97, 7.59, 3.43, -0.6, -0.0, 1.61, 1.61, 2.5, 2.15, 1.9, 1.61, 1.2, 0.61, 0.59, 0.59, 0.59, 2.79, 2.79, 2.53, 2.21, 2.21, 2.21, 1.88, 1.88, 1.88, 1.61, 1.61, 1.2, 1.49, 1.24, 0.71, 0.71, 0.71, 0.0, 0.0, 0.0, 0.0, 0.0, 0.0, -0.71, -0.54, -0.54, -0.54, -1.2, -1.2, -1.2, -1.2, -1.61, -1.61, -1.61, -2.21, -2.5, -2.5, -2.5, -2.5, -3.07, -2.79, -2.79, -2.79, -2.79, -3.14, -3.14, -3.14, -2.79, -2.79, -2.79, -3.07, -3.07, -3.07, -2.68, -2.68, -2.5, -2.5, -2.5, -2.68, -2.68, -2.68, -2.5, -2.21, -2.53, -2.4, -0.63, -0.0, 0.71, 0.54, -0.0, -0.0, -0.0, -0.8, -0.57, -0.0, -0.0, 0.63, 1.34, 2.63, 3.2, 3.14, 3.78, 6.08, 6.39, 2.86, 0.0, 2.4, 1.61, 1.16, 2.21, 2.91, 2.4, 1.58, 1.24, 0.65, 0.61, 0.61, 0.61, 2.79, 2.79, 2.53, 2.21, 2.21, 2.21, 1.88, 1.88, 1.88, 1.61, 1.2, 1.2, 1.2, 1.0, 0.71, 0.71, 0.71, 0.0, 0.0, 0.0, 0.0, 0.0, 0.0, -0.71, -0.71, -0.54, -0.54, -1.2, -1.2, -1.2, -1.2, -1.61, -1.61, -1.88, -2.5, -2.5, -2.5, -2.5, -2.5, -3.07, -3.07, -2.79, -3.14, -3.14, -3.14, -3.35, -3.14, -3.14, -3.14, -2.79, -3.07, -3.07, -3.07, -3.07, -2.68, -2.68, -2.68, -2.68, -2.68, -2.68, -2.68, -2.68, -2.5, -2.21, -2.4, -0.89, -0.57, -0.0, -0.0, -0.0, -0.0, 0.0, 0.0, -0.6, -0.0, -0.0, -0.0, 1.2, 1.79, 2.63, 3.07, 3.6, 3.35, 2.86, 1.23, 1.34, 3.07, 1.49, -0.0, -0.0, 2.0, 2.24, 1.7, 0.8, 0.57, 0.65, 0.65, 0.65, 2.79, 2.79, 2.53, 2.53, 2.21, 2.21, 1.88, 1.88, 1.88, 1.61, 1.2, 1.2, 1.2, 0.54, 0.54, 0.71, 0.0, 0.0, 0.0, 0.0, 0.0, 0.0, -0.71, -0.71, -0.71, -0.54, -0.54, -1.2, -1.2, -1.2, -1.61, -1.61, -1.88, -1.88, -2.21, -2.5, -2.5, -2.5, -3.07, -3.07, -3.07, -2.79, -3.35, -3.35, -3.35, -3.35, -3.35, -3.35, -3.35, -3.14, -3.14, -3.07, -3.07, -3.07, -3.07, -3.07, -2.68, -2.68, -2.68, -3.07, -3.07, -2.68, -2.68, -2.5, -2.4, -2.24, -1.26, -1.24, -0.99, -0.8, -0.6, 0.0, 0.0, 0.0, -0.0, -0.0, -0.0, 0.6, 1.7, 1.79, 2.4, 2.68, 3.07, 1.8, 0.0, 2.17, 3.58, 2.24, -1.24, -1.8, -0.0, 0.89, 0.89, 0.63, -0.0, -0.0, -0.0, -0.0, 2.79, 2.79, 2.53, 2.53, 2.21, 1.88, 1.88, 1.88, 1.88, 1.2, 1.2, 1.2, 1.2, 0.54, 0.54, 0.54, 0.0, 0.0, 0.0, 0.0, 0.0, 0.0, -0.71, -0.71, -0.71, -0.54, -1.0, -1.2, -1.2, -1.2, -1.61, -1.61, -1.88, -1.88, -2.21, -2.5, -2.5, -2.68, -3.07, -3.07, -3.07, -3.45, -3.35, -3.35, -3.35, -3.35, -3.35, -3.35, -3.35, -3.35, -3.35, -3.6, -3.07, -3.07, -3.07, -3.07, -3.07, -3.07, -3.07, -3.07, -3.07, -2.68, -2.68, -2.5, -2.4, -2.24, -1.86, -2.4, -2.4, -1.9, -1.58, -1.2, -0.63, -0.6, 0.0, -0.0, -0.0, 0.63, 1.7, 1.7, 1.79, 2.4, 2.21, 0.0, 0.0, 2.68, 3.58, 3.58, -0.0, -2.44, -1.8, -0.4, 0.0, 0.0, -0.0, -0.0, -0.0, -0.0, 2.79, 2.79, 2.53, 2.53, 2.21, 1.88, 1.88, 1.88, 1.88, 1.2, 1.2, 1.2, 1.2, 0.65, 0.54, 0.54, 0.0, 0.0, 0.0, 0.0, 0.0, 0.0, -0.71, -0.71, -0.71, -1.24, -1.0, -1.2, -1.2, -1.2, -1.61, -1.61, -1.88, -2.21, -2.21, -2.5, -2.5, -3.07, -3.07, -3.07, -3.07, -3.6, -3.35, -3.35, -3.35, -3.35, -3.72, -3.35, -3.35, -3.35, -3.6, -3.6, -3.6, -3.07, -3.07, -3.07, -3.07, -3.07, -3.07, -3.07, -3.07, -3.07, -2.68, -2.68, -2.8, -3.07, -3.58, -3.97, -2.8, -2.15, -1.86, -1.7, -1.79, -1.79, -0.89, 0.0, -0.0, 0.63, 1.34, 1.34, 1.34, 1.7, 1.27, 0.57, 0.57, 2.6, 3.53, 3.53, 1.24, -1.76, -2.22, -1.58, -0.89, -0.45, -0.0, -0.0, -0.0, -0.0, 2.79, 2.79, 2.53, 2.53, 2.21, 1.88, 1.88, 1.88, 1.88, 1.4, 1.2, 1.2, 0.65, 0.65, 0.54, 0.0, 0.0, 0.0, 0.0, 0.0, 0.0, -0.71, -0.71, -0.71, -0.54, -1.0, -1.2, -1.2, -1.2, -1.61, -1.61, -1.88, -1.88, -2.21, -2.21, -2.5, -2.5, -3.07, -3.07, -3.07, -3.07, -3.6, -3.35, -3.35, -3.72, -3.72, -3.72, -3.72, -3.72, -3.35, -3.6, -3.6, -3.6, -3.6, -3.2, -3.07, -3.07, -3.07, -3.07, -3.07, -3.07, -3.07, -3.07, -2.68, -2.68, -2.91, -3.58, -3.97, -2.4, -1.58, -0.95, -1.2, -2.12, -2.17, -1.7, -0.63, -0.0, -0.0, 0.63, 0.89, 0.89, 0.89, 1.2, 0.65, 0.0, 1.79, 3.07, 3.07, 2.0, -0.61, -2.48, -2.5, -1.34, -0.63, -0.0, -0.0, -0.0, -0.0, 2.53, 2.53, 2.53, 2.53, 2.53, 1.88, 1.88, 1.88, 1.88, 1.4, 1.2, 1.2, 0.65, 0.65, 0.65, 0.0, 0.0, 0.0, 0.0, 0.0, 0.0, -0.54, -0.54, -0.54, -1.0, -1.0, -1.2, -1.2, -1.2, -1.61, -1.61, -1.88, -1.88, -2.21, -2.21, -2.21, -3.07, -3.07, -3.07, -3.07, -3.6, -3.6, -3.35, -3.72, -3.72, -3.88, -3.88, -3.88, -3.88, -3.72, -3.72, -3.6, -3.6, -3.6, -3.6, -3.2, -3.2, -3.07, -3.07, -3.07, -3.07, -3.07, -3.07, -3.07, -3.07, -3.07, -3.53, -3.53, -3.45, -1.24, -0.57, -0.57, -1.24, -1.58, -0.6, -0.0, -0.0, -0.0, -0.0, -0.0, -0.0, 0.0, 0.0, 0.0, -0.6, 0.0, 1.79, 2.24, 2.24, -0.0, -1.88, -2.21, -1.26, -0.8, -0.6, -0.0, -0.0, -0.0, 2.53, 2.53, 2.53, 2.53, 2.53, 1.88, 1.88, 1.88, 1.4, 1.4, 1.2, 1.2, 0.65, 0.65, 0.65, 0.0, 0.0, 0.0, 0.0, 0.0, 0.0, -0.54, -0.54, -0.54, -1.2, -1.2, -1.2, -1.2, -1.2, -1.61, -1.61, -1.88, -2.21, -2.21, -2.21, -2.53, -3.07, -3.07, -3.07, -3.07, -3.6, -3.6, -3.35, -3.72, -3.88, -3.88, -3.88, -3.88, -3.88, -3.88, -3.88, -3.6, -3.6, -3.6, -3.6, -3.6, -3.6, -3.2, -3.2, -3.07, -3.07, -3.07, -3.07, -3.07, -2.79, -3.14, -3.39, -3.58, -2.53, -1.0, -0.54, -0.54, -1.2, -1.24, -0.6, -0.0, 0.0, -0.0, -0.63, -0.63, -0.63, -0.45, -0.95, -0.71, -1.24, -0.63, 0.45, 1.34, 1.34, 0.32, -0.99, -1.88, -1.58, -1.7, -1.6, -0.57, -0.57, -0.57, 2.53, 2.53, 2.53, 2.53, 2.53, 1.88, 1.88, 1.88, 1.4, 1.4, 1.2, 0.65, 0.65, 0.65, 0.65, 0.0, 0.0, 0.0, 0.0, 0.0, -0.54, -0.54, -0.54, -0.65, -1.2, -1.2, -1.2, -1.2, -1.61, -1.61, -1.88, -1.88, -2.21, -2.21, -2.53, -2.79, -2.79, -3.07, -3.07, -3.6, -3.6, -3.6, -3.35, -3.88, -3.88, -3.88, -3.88, -3.88, -3.88, -3.88, -3.88, -4.11, -4.11, -3.6, -3.6, -3.6, -3.6, -3.6, -3.6, -3.2, -3.2, -3.07, -3.07, -3.07, -3.35, -3.35, -3.6, -3.13, -2.53, -1.2, -1.2, -1.49, -1.24, -0.57, -0.6, -0.63, 0.0, 0.0, -0.63, -0.63, -1.2, -1.34, -1.7, -1.61, -1.88, -1.86, -0.45, 0.32, 0.0, 0.0, -0.89, -1.24, -2.4, -2.6, -2.12, -0.6, -0.6, -0.6, 2.23, 2.23, 2.53, 2.53, 2.15, 1.61, 1.61, 1.16, 1.4, 1.4, 1.2, 0.65, 0.65, 0.65, 0.0, 0.0, 0.0, 0.0, 0.0, 0.0, -0.54, -0.65, -0.65, -0.65, -1.2, -1.2, -1.2, -1.2, -1.61, -1.88, -1.88, -1.88, -2.21, -2.21, -2.53, -2.79, -2.79, -2.79, -3.07, -3.6, -3.6, -3.6, -3.72, -3.88, -3.88, -3.88, -4.27, -4.27, -4.27, -3.88, -3.88, -4.11, -4.11, -4.11, -3.7, -3.6, -3.6, -3.6, -3.6, -3.6, -3.6, -3.6, -3.6, -3.6, -3.35, -3.72, -3.35, -3.13, -2.5, -2.21, -2.23, -1.9, -1.24, -0.6, -0.6, -1.26, -0.6, -0.0, -0.0, -0.63, -1.2, -1.34, -2.12, -1.88, -1.6, -2.21, -2.12, -0.63, 0.0, -0.57, -1.26, -1.34, -2.17, -2.6, -2.17, -0.63, -0.63, -0.63, 2.23, 2.23, 2.23, 2.23, 1.61, 1.61, 1.61, 1.4, 1.4, 1.2, 0.65, 0.65, 0.65, 0.65, 0.0, 0.0, 0.0, 0.0, 0.0, 0.0, -0.65, -0.65, -0.65, -1.2, -1.2, -1.2, -1.2, -1.2, -1.88, -1.88, -1.88, -2.21, -2.21, -2.53, -2.53, -2.79, -2.79, -2.79, -3.35, -3.6, -3.6, -3.6, -3.88, -3.88, -3.88, -4.27, -4.27, -4.27, -4.27, -4.27, -4.27, -4.11, -4.11, -4.11, -4.11, -4.11, -3.7, -3.7, -3.6, -3.6, -3.6, -3.6, -3.6, -3.6, -3.35, -3.72, -3.72, -3.39, -3.07, -2.5, -1.84, -1.24, -0.57, -0.0, -0.0, -0.57, -0.57, -0.0, -0.0, -0.32, -1.2, -1.79, -2.6, -2.21, -1.8, -1.8, -2.21, -1.86, -1.24, -1.2, -1.61, -1.86, -1.79, -2.24, -1.79, -0.63, -0.63, -0.63, 2.23, 2.23, 2.23, 1.84, 1.61, 1.61, 1.4, 1.4, 1.2, 1.2, 0.65, 0.65, 0.65, 0.0, 0.0, 0.0, 0.0, 0.0, 0.0, 0.0, -0.65, -0.65, -0.65, -1.2, -1.2, -1.2, -1.4, -1.88, -1.88, -1.88, -1.88, -2.21, -2.21, -2.53, -2.79, -2.79, -2.79, -3.14, -3.35, -3.35, -3.6, -3.6, -3.88, -3.88, -3.88, -4.27, -4.27, -4.27, -4.27, -4.27, -4.27, -4.11, -4.11, -4.11, -4.11, -4.11, -4.11, -3.7, -3.87, -3.7, -3.7, -3.6, -3.6, -3.6, -3.72, -3.72, -3.72, -3.6, -3.13, -2.4, -1.88, -1.2, -0.0, -0.0, -0.0, -0.0, -0.0, -0.0, -0.0, -0.63, -1.34, -2.24, -2.49, -2.79, -1.8, -1.23, -1.8, -2.53, -1.88, -1.61, -1.61, -1.9, -2.12, -2.12, -1.86, -0.57, -0.57, -0.57, 2.23, 2.23, 2.23, 1.84, 1.61, 1.61, 1.4, 1.4, 1.2, 1.2, 0.65, 0.65, 0.65, 0.0, 0.0, 0.0, 0.0, 0.0, 0.0, 0.0, -0.65, -0.65, -0.65, -1.2, -1.2, -1.2, -1.4, -1.88, -1.88, -1.88, -1.88, -2.21, -2.21, -2.53, -2.79, -2.79, -2.79, -3.14, -3.35, -3.35, -3.6, -3.6, -3.88, -3.88, -3.88, -4.27, -4.27, -4.27, -4.27, -4.27, -4.27, -4.11, -4.11, -4.11, -4.11, -4.11, -4.11, -3.7, -3.87, -3.7, -3.7, -3.6, -3.6, -3.6, -3.72, -3.72, -3.72, -3.6, -3.13, -2.4, -1.88, -1.2, -0.0, -0.0, -0.0, -0.0, -0.0, -0.0, -0.0, -0.63, -1.34, -2.24, -2.91, -3.14, -2.48, -1.76, -1.23, -1.23, -1.27, -1.11, -0.57, -0.66, -0.61, -1.2, -1.2, -0.53, -0.53, -0.53]}]